Time,TemperatureF,DewpointF,PressureIn,WindDirection,WindDirectionDegrees,WindSpeedMPH,WindSpeedGustMPH,Humidity,HourlyPrecipIn,Conditions,Clouds,dailyrainin,SoftwareType,DateUTC
2013-01-05 00:00:00,33.5,33.5,30.20,SW,216,3.0,6.0,100,0.00,,OVC,0.00,WeatherDisplay:10.37,2013-01-05 08:00:00,
2013-01-05 00:01:00,33.5,33.5,30.20,SW,224,4.6,4.6,100,0.00,,OVC,0.00,WeatherDisplay:10.37,2013-01-05 08:01:00,
2013-01-05 00:02:00,33.5,33.5,30.20,SW,219,6.0,6.0,100,0.00,,OVC,0.00,WeatherDisplay:10.37,2013-01-05 08:02:00,
2013-01-05 00:05:00,33.3,33.3,30.20,SSW,211,4.0,4.0,100,0.00,,OVC,0.00,WeatherDisplay:10.37,2013-01-05 08:05:00,
2013-01-05 00:06:00,33.4,33.4,30.20,SSW,213,3.5,3.5,100,0.00,,OVC,0.00,WeatherDisplay:10.37,2013-01-05 08:06:00,
2013-01-05 00:07:00,33.3,33.3,30.20,SSW,213,3.5,3.5,100,0.00,,OVC,0.00,WeatherDisplay:10.37,2013-01-05 08:07:00,
2013-01-05 00:10:00,33.2,33.2,30.19,SW,221,4.0,4.0,100,0.00,,OVC,0.00,WeatherDisplay:10.37,2013-01-05 08:10:00,
2013-01-05 00:11:00,33.2,33.2,30.19,SW,222,4.0,4.0,100,0.00,,OVC,0.00,WeatherDisplay:10.37,2013-01-05 08:11:00,
2013-01-05 00:12:00,33.2,33.2,30.20,SW,222,3.5,3.5,100,0.00,,OVC,0.00,WeatherDisplay:10.37,2013-01-05 08:12:00,
2013-01-05 00:15:00,33.1,33.1,30.20,SW,222,4.0,4.0,100,0.00,,OVC,0.00,WeatherDisplay:10.37,2013-01-05 08:15:00,
2013-01-05 00:16:00,33.1,33.1,30.20,SW,222,4.0,4.0,100,0.00,,OVC,0.00,WeatherDisplay:10.37,2013-01-05 08:16:00,
2013-01-05 00:17:00,33.1,33.1,30.19,SW,222,4.6,4.6,100,0.00,,OVC,0.00,WeatherDisplay:10.37,2013-01-05 08:17:00,
2013-01-05 00:21:00,33.1,33.1,30.19,SW,222,3.5,3.5,100,0.00,,OVC,0.00,WeatherDisplay:10.37,2013-01-05 08:21:00,
2013-01-05 00:22:00,33.0,33.0,30.20,SW,222,3.5,3.5,100,0.00,,OVC,0.00,WeatherDisplay:10.37,2013-01-05 08:22:00,
2013-01-05 00:26:00,33.0,33.0,30.20,SW,221,4.6,4.6,100,0.00,,OVC,0.00,WeatherDisplay:10.37,2013-01-05 08:26:00,
2013-01-05 00:27:00,33.1,33.1,30.20,SW,221,4.0,4.0,100,0.00,,OVC,0.00,WeatherDisplay:10.37,2013-01-05 08:27:00,
2013-01-05 00:31:00,33.0,33.0,30.20,SW,221,4.6,4.6,100,0.00,,OVC,0.00,WeatherDisplay:10.37,2013-01-05 08:31:00,
2013-01-05 00:32:00,33.0,33.0,30.20,SW,217,5.8,5.8,100,0.00,,OVC,0.00,WeatherDisplay:10.37,2013-01-05 08:32:00,
2013-01-05 00:36:00,32.9,32.9,30.20,SW,220,3.5,3.5,100,0.00,,OVC,0.00,WeatherDisplay:10.37,2013-01-05 08:36:00,
2013-01-05 00:37:00,32.9,32.9,30.20,SW,221,3.5,3.5,100,0.00,,OVC,0.00,WeatherDisplay:10.37,2013-01-05 08:37:00,
2013-01-05 00:41:00,32.9,32.9,30.20,SW,219,5.0,5.0,100,0.00,,OVC,0.00,WeatherDisplay:10.37,2013-01-05 08:41:00,
2013-01-05 00:42:00,32.9,32.9,30.20,SW,215,4.6,4.6,100,0.00,,OVC,0.00,WeatherDisplay:10.37,2013-01-05 08:42:00,
2013-01-05 00:46:00,32.8,32.8,30.20,SSW,206,4.6,4.6,100,0.00,,OVC,0.00,WeatherDisplay:10.37,2013-01-05 08:46:00,
2013-01-05 00:47:00,32.8,32.8,30.20,SW,219,3.5,3.5,100,0.00,,OVC,0.00,WeatherDisplay:10.37,2013-01-05 08:47:00,
2013-01-05 00:51:00,32.7,32.7,30.20,SW,224,4.6,4.6,100,0.00,,OVC,0.00,WeatherDisplay:10.37,2013-01-05 08:51:00,
2013-01-05 00:52:00,32.7,32.7,30.20,SW,223,3.5,3.7,100,0.00,,OVC,0.00,WeatherDisplay:10.37,2013-01-05 08:52:00,
2013-01-05 00:53:00,32.8,32.8,30.20,SW,223,4.6,4.6,100,0.00,,OVC,0.00,WeatherDisplay:10.37,2013-01-05 08:53:00,
2013-01-05 00:56:00,32.7,32.7,30.20,SW,223,4.6,4.6,100,0.00,,OVC,0.00,WeatherDisplay:10.37,2013-01-05 08:56:00,
2013-01-05 00:57:00,32.7,32.7,30.20,SW,223,4.6,4.6,100,0.00,,OVC,0.00,WeatherDisplay:10.37,2013-01-05 08:57:00,
2013-01-05 00:58:00,32.6,32.6,30.20,SW,223,4.0,4.0,100,0.00,,OVC,0.00,WeatherDisplay:10.37,2013-01-05 08:58:00,
2013-01-05 01:01:00,32.5,32.5,30.20,SW,219,5.8,5.8,100,0.00,,OVC,0.00,WeatherDisplay:10.37,2013-01-05 09:01:00,
2013-01-05 01:02:00,32.6,32.6,30.20,SW,222,5.8,5.8,100,0.00,,OVC,0.00,WeatherDisplay:10.37,2013-01-05 09:02:00,
2013-01-05 01:03:00,32.6,32.6,30.20,SW,222,4.6,4.6,100,0.00,,OVC,0.00,WeatherDisplay:10.37,2013-01-05 09:03:00,
2013-01-05 01:07:00,32.6,32.6,30.20,SW,225,4.6,4.6,100,0.00,,OVC,0.00,WeatherDisplay:10.37,2013-01-05 09:07:00,
2013-01-05 01:08:00,32.6,32.6,30.20,SW,222,3.5,3.5,100,0.00,,OVC,0.00,WeatherDisplay:10.37,2013-01-05 09:08:00,
2013-01-05 01:12:00,32.6,32.6,30.20,SW,224,3.5,3.5,100,0.00,,OVC,0.00,WeatherDisplay:10.37,2013-01-05 09:12:00,
2013-01-05 01:13:00,32.6,32.6,30.20,SW,224,3.5,3.5,100,0.00,,OVC,0.00,WeatherDisplay:10.37,2013-01-05 09:13:00,
2013-01-05 01:17:00,32.6,32.4,30.20,SW,224,3.5,3.5,99,0.00,,OVC,0.00,WeatherDisplay:10.37,2013-01-05 09:17:00,
2013-01-05 01:18:00,32.6,32.4,30.20,SW,224,3.5,3.5,99,0.00,CLR,OVC,0.00,WeatherDisplay:10.37,2013-01-05 09:18:00,
2013-01-05 01:22:00,32.6,32.4,30.20,SW,224,3.0,3.0,99,0.00,CLR,OVC,0.00,WeatherDisplay:10.37,2013-01-05 09:22:00,
2013-01-05 01:23:00,32.5,32.3,30.20,SW,224,3.5,3.5,99,0.00,CLR,OVC,0.00,WeatherDisplay:10.37,2013-01-05 09:23:00,
2013-01-05 01:27:00,32.5,32.3,30.20,SW,224,3.5,3.5,99,0.00,CLR,OVC,0.00,WeatherDisplay:10.37,2013-01-05 09:27:00,
2013-01-05 01:28:00,32.5,32.3,30.20,SW,224,3.5,3.5,99,0.00,CLR,OVC,0.00,WeatherDisplay:10.37,2013-01-05 09:28:00,
2013-01-05 01:32:00,32.5,32.3,30.20,SW,224,2.3,2.3,99,0.00,CLR,OVC,0.00,WeatherDisplay:10.37,2013-01-05 09:32:00,
2013-01-05 01:33:00,32.5,32.3,30.20,SW,224,2.3,2.3,99,0.00,CLR,OVC,0.00,WeatherDisplay:10.37,2013-01-05 09:33:00,
2013-01-05 01:37:00,32.5,32.3,30.20,SW,224,2.0,2.0,99,0.00,CLR,OVC,0.00,WeatherDisplay:10.37,2013-01-05 09:37:00,
2013-01-05 01:38:00,32.5,32.3,30.20,SW,224,2.3,2.3,99,0.00,CLR,OVC,0.00,WeatherDisplay:10.37,2013-01-05 09:38:00,
2013-01-05 01:39:00,32.5,32.3,30.20,SW,224,2.3,2.3,99,0.00,CLR,OVC,0.00,WeatherDisplay:10.37,2013-01-05 09:39:00,
2013-01-05 01:42:00,32.5,32.3,30.20,SW,224,3.5,3.5,99,0.00,CLR,OVC,0.00,WeatherDisplay:10.37,2013-01-05 09:42:00,
2013-01-05 01:43:00,32.5,32.3,30.20,SW,224,3.5,3.5,99,0.00,CLR,OVC,0.00,WeatherDisplay:10.37,2013-01-05 09:43:00,
2013-01-05 01:44:00,32.6,32.4,30.20,SW,224,3.5,3.5,99,0.00,CLR,OVC,0.00,WeatherDisplay:10.37,2013-01-05 09:44:00,
2013-01-05 01:47:00,32.6,32.4,30.20,SW,224,4.0,4.0,99,0.00,CLR,OVC,0.00,WeatherDisplay:10.37,2013-01-05 09:47:00,
2013-01-05 01:48:00,32.6,32.4,30.20,SW,224,3.5,3.9,99,0.00,CLR,OVC,0.00,WeatherDisplay:10.37,2013-01-05 09:48:00,
2013-01-05 01:49:00,32.6,32.4,30.20,SW,224,4.6,4.6,99,0.00,CLR,OVC,0.00,WeatherDisplay:10.37,2013-01-05 09:49:00,
2013-01-05 01:53:00,32.7,32.5,30.20,SW,224,3.5,3.5,99,0.00,CLR,OVC,0.00,WeatherDisplay:10.37,2013-01-05 09:53:00,
2013-01-05 01:54:00,32.7,32.2,30.20,SW,224,3.5,3.5,98,0.00,CLR,OVC,0.00,WeatherDisplay:10.37,2013-01-05 09:54:00,
2013-01-05 01:58:00,32.9,32.4,30.20,SW,224,4.6,4.6,98,0.00,CLR,OVC,0.00,WeatherDisplay:10.37,2013-01-05 09:58:00,
2013-01-05 01:59:00,33.0,32.5,30.20,SW,224,4.6,4.6,98,0.00,CLR,OVC,0.00,WeatherDisplay:10.37,2013-01-05 09:59:00,
2013-01-05 02:03:00,33.2,32.7,30.20,SW,224,3.5,3.5,98,0.00,CLR,OVC,0.00,WeatherDisplay:10.37,2013-01-05 10:03:00,
2013-01-05 02:04:00,33.2,32.7,30.20,SW,224,3.5,3.5,98,0.00,CLR,OVC,0.00,WeatherDisplay:10.37,2013-01-05 10:04:00,
2013-01-05 02:08:00,33.0,32.2,30.20,SW,224,3.5,3.5,97,0.00,CLR,OVC,0.00,WeatherDisplay:10.37,2013-01-05 10:08:00,
2013-01-05 02:09:00,33.0,32.2,30.20,SW,224,3.5,3.5,97,0.00,CLR,OVC,0.00,WeatherDisplay:10.37,2013-01-05 10:09:00,
2013-01-05 02:13:00,32.9,32.1,30.20,SW,224,3.5,3.5,97,0.00,CLR,OVC,0.00,WeatherDisplay:10.37,2013-01-05 10:13:00,
2013-01-05 02:14:00,32.9,32.1,30.20,SW,224,3.5,3.5,97,0.00,CLR,OVC,0.00,WeatherDisplay:10.37,2013-01-05 10:14:00,
2013-01-05 02:15:00,32.8,32.0,30.20,SW,224,1.1,0.0,97,0.00,CLR,OVC,0.00,WeatherDisplay:10.37,2013-01-05 10:15:00,
2013-01-05 02:18:00,32.8,32.0,30.21,SW,224,2.3,2.3,97,0.00,CLR,OVC,0.00,WeatherDisplay:10.37,2013-01-05 10:18:00,
2013-01-05 02:19:00,32.8,32.0,30.20,SW,224,3.0,3.0,97,0.00,CLR,OVC,0.00,WeatherDisplay:10.37,2013-01-05 10:19:00,
2013-01-05 02:20:00,32.8,32.0,30.21,SW,224,3.5,3.5,97,0.00,CLR,OVC,0.00,WeatherDisplay:10.37,2013-01-05 10:20:00,
2013-01-05 02:23:00,32.7,31.9,30.21,SW,224,3.5,3.5,97,0.00,CLR,OVC,0.00,WeatherDisplay:10.37,2013-01-05 10:23:00,
2013-01-05 02:24:00,32.6,31.8,30.21,SW,224,3.5,3.5,97,0.00,CLR,OVC,0.00,WeatherDisplay:10.37,2013-01-05 10:24:00,
2013-01-05 02:25:00,32.6,31.8,30.21,SW,224,3.5,3.5,97,0.00,CLR,OVC,0.00,WeatherDisplay:10.37,2013-01-05 10:25:00,
2013-01-05 02:28:00,32.6,31.8,30.21,SW,224,1.1,1.1,97,0.00,CLR,OVC,0.00,WeatherDisplay:10.37,2013-01-05 10:28:00,
2013-01-05 02:29:00,32.6,31.8,30.20,SW,224,1.1,1.1,97,0.00,CLR,OVC,0.00,WeatherDisplay:10.37,2013-01-05 10:29:00,
2013-01-05 02:30:00,32.6,31.8,30.20,SW,224,1.1,0.0,97,0.00,CLR,OVC,0.00,WeatherDisplay:10.37,2013-01-05 10:30:00,
2013-01-05 02:34:00,32.5,31.7,30.20,SW,224,0.0,0.0,97,0.00,CLR,OVC,0.00,WeatherDisplay:10.37,2013-01-05 10:34:00,
2013-01-05 02:35:00,32.5,31.7,30.20,SW,224,0.0,0.0,97,0.00,CLR,OVC,0.00,WeatherDisplay:10.37,2013-01-05 10:35:00,
2013-01-05 02:39:00,32.5,31.7,30.20,SW,224,0.0,0.0,97,0.00,CLR,OVC,0.00,WeatherDisplay:10.37,2013-01-05 10:39:00,
2013-01-05 02:40:00,32.5,31.7,30.20,SW,224,0.0,0.0,97,0.00,CLR,OVC,0.00,WeatherDisplay:10.37,2013-01-05 10:40:00,
2013-01-05 02:44:00,32.5,31.7,30.20,SW,224,2.3,2.3,97,0.00,CLR,OVC,0.00,WeatherDisplay:10.37,2013-01-05 10:44:00,
2013-01-05 02:45:00,32.5,31.7,30.21,SW,224,0.0,0.0,97,0.00,CLR,OVC,0.00,WeatherDisplay:10.37,2013-01-05 10:45:00,
2013-01-05 02:49:00,32.6,32.1,30.21,SW,224,0.0,0.0,98,0.00,CLR,OVC,0.00,WeatherDisplay:10.37,2013-01-05 10:49:00,
2013-01-05 02:50:00,32.5,32.0,30.21,SW,224,0.0,0.0,98,0.00,CLR,OVC,0.00,WeatherDisplay:10.37,2013-01-05 10:50:00,
2013-01-05 02:54:00,32.6,31.8,30.21,SW,224,3.5,3.5,97,0.00,CLR,OVC,0.00,WeatherDisplay:10.37,2013-01-05 10:54:00,
2013-01-05 02:55:00,32.6,31.8,30.21,SW,224,3.5,3.5,97,0.00,CLR,OVC,0.00,WeatherDisplay:10.37,2013-01-05 10:55:00,
2013-01-05 02:59:00,32.6,31.6,30.21,SW,224,3.0,3.0,96,0.00,CLR,OVC,0.00,WeatherDisplay:10.37,2013-01-05 10:59:00,
2013-01-05 03:00:00,32.6,31.6,30.21,SW,224,3.5,3.5,96,0.00,CLR,OVC,0.00,WeatherDisplay:10.37,2013-01-05 11:00:00,
2013-01-05 03:04:00,32.6,31.6,30.21,SW,217,3.5,3.5,96,0.00,CLR,OVC,0.00,WeatherDisplay:10.37,2013-01-05 11:04:00,
2013-01-05 03:05:00,32.6,31.6,30.21,SW,217,3.5,3.5,96,0.00,CLR,OVC,0.00,WeatherDisplay:10.37,2013-01-05 11:05:00,
2013-01-05 03:10:00,32.6,31.6,30.21,SW,221,4.6,4.6,96,0.00,CLR,OVC,0.00,WeatherDisplay:10.37,2013-01-05 11:10:00,
2013-01-05 03:15:00,32.6,31.3,30.21,SW,215,4.6,4.6,95,0.00,CLR,OVC,0.00,WeatherDisplay:10.37,2013-01-05 11:15:00,
2013-01-05 03:16:00,32.6,31.3,30.21,SW,215,3.5,3.5,95,0.00,CLR,OVC,0.00,WeatherDisplay:10.37,2013-01-05 11:16:00,
2013-01-05 03:20:00,32.5,31.2,30.21,SW,215,4.6,4.6,95,0.00,CLR,OVC,0.00,WeatherDisplay:10.37,2013-01-05 11:20:00,
2013-01-05 03:21:00,32.5,31.5,30.20,SW,215,3.5,3.5,96,0.00,CLR,OVC,0.00,WeatherDisplay:10.37,2013-01-05 11:21:00,
2013-01-05 03:25:00,32.5,31.2,30.20,SW,215,3.5,3.5,95,0.00,CLR,OVC,0.00,WeatherDisplay:10.37,2013-01-05 11:25:00,
2013-01-05 03:26:00,32.5,31.2,30.20,SW,214,3.5,3.5,95,0.00,CLR,OVC,0.00,WeatherDisplay:10.37,2013-01-05 11:26:00,
2013-01-05 03:30:00,32.4,31.1,30.20,SW,214,0.0,0.0,95,0.00,CLR,OVC,0.00,WeatherDisplay:10.37,2013-01-05 11:30:00,
2013-01-05 03:31:00,32.4,31.4,30.20,SW,214,1.1,0.0,96,0.00,CLR,OVC,0.00,WeatherDisplay:10.37,2013-01-05 11:31:00,
2013-01-05 03:35:00,32.5,31.2,30.20,SW,214,3.5,3.5,95,0.00,CLR,OVC,0.00,WeatherDisplay:10.37,2013-01-05 11:35:00,
2013-01-05 03:36:00,32.5,31.2,30.21,SSW,195,4.0,4.0,95,0.00,CLR,OVC,0.00,WeatherDisplay:10.37,2013-01-05 11:36:00,
2013-01-05 03:37:00,32.5,31.2,30.20,SSW,195,3.5,3.5,95,0.00,CLR,OVC,0.00,WeatherDisplay:10.37,2013-01-05 11:37:00,
2013-01-05 03:40:00,32.5,31.2,30.20,SSW,195,3.5,3.5,95,0.00,CLR,OVC,0.00,WeatherDisplay:10.37,2013-01-05 11:40:00,
2013-01-05 03:41:00,32.5,31.2,30.20,SSW,195,3.5,3.5,95,0.00,CLR,OVC,0.00,WeatherDisplay:10.37,2013-01-05 11:41:00,
2013-01-05 03:42:00,32.5,31.2,30.20,SSW,195,4.0,4.0,95,0.00,CLR,OVC,0.00,WeatherDisplay:10.37,2013-01-05 11:42:00,
2013-01-05 03:45:00,32.5,31.2,30.20,SSW,195,3.5,3.5,95,0.00,CLR,OVC,0.00,WeatherDisplay:10.37,2013-01-05 11:45:00,
2013-01-05 03:46:00,32.5,31.2,30.21,SSW,196,4.0,4.0,95,0.00,CLR,OVC,0.00,WeatherDisplay:10.37,2013-01-05 11:46:00,
2013-01-05 03:47:00,32.5,31.2,30.21,SSW,196,5.8,5.8,95,0.00,CLR,OVC,0.00,WeatherDisplay:10.37,2013-01-05 11:47:00,
2013-01-05 03:50:00,32.6,31.1,30.20,SW,225,5.8,5.8,94,0.00,CLR,OVC,0.00,WeatherDisplay:10.37,2013-01-05 11:50:00,
2013-01-05 03:51:00,32.6,31.1,30.20,SW,219,5.8,5.8,94,0.00,CLR,OVC,0.00,WeatherDisplay:10.37,2013-01-05 11:51:00,
2013-01-05 03:52:00,32.6,31.1,30.20,SW,226,5.8,5.8,94,0.00,CLR,OVC,0.00,WeatherDisplay:10.37,2013-01-05 11:52:00,
2013-01-05 03:56:00,32.6,31.1,30.20,SSW,205,4.0,4.0,94,0.00,CLR,OVC,0.00,WeatherDisplay:10.37,2013-01-05 11:56:00,
2013-01-05 03:57:00,32.6,31.1,30.20,SSW,205,5.0,5.0,94,0.00,CLR,OVC,0.00,WeatherDisplay:10.37,2013-01-05 11:57:00,
2013-01-05 04:01:00,32.6,31.1,30.20,SSW,209,3.5,3.5,94,0.00,CLR,OVC,0.00,WeatherDisplay:10.37,2013-01-05 12:01:00,
2013-01-05 04:02:00,32.6,31.1,30.20,SSW,209,3.5,3.5,94,0.00,CLR,OVC,0.00,WeatherDisplay:10.37,2013-01-05 12:02:00,
2013-01-05 04:06:00,32.5,31.2,30.20,SSW,209,3.0,3.0,95,0.00,CLR,OVC,0.00,WeatherDisplay:10.37,2013-01-05 12:06:00,
2013-01-05 04:07:00,32.5,31.2,30.20,SSW,209,3.5,3.5,95,0.00,CLR,OVC,0.00,WeatherDisplay:10.37,2013-01-05 12:07:00,
2013-01-05 04:08:00,32.5,31.0,30.20,SSW,209,3.5,3.5,94,0.00,CLR,OVC,0.00,WeatherDisplay:10.37,2013-01-05 12:08:00,
2013-01-05 04:11:00,32.5,31.2,30.20,SSW,209,0.0,0.0,95,0.00,CLR,OVC,0.00,WeatherDisplay:10.37,2013-01-05 12:11:00,
2013-01-05 04:12:00,32.5,31.2,30.20,SSW,209,0.0,0.0,95,0.00,CLR,OVC,0.00,WeatherDisplay:10.37,2013-01-05 12:12:00,
2013-01-05 04:13:00,32.5,31.0,30.20,SSW,209,3.5,3.5,94,0.00,CLR,OVC,0.00,WeatherDisplay:10.37,2013-01-05 12:13:00,
2013-01-05 04:16:00,32.5,31.0,30.20,SSW,209,3.5,3.5,94,0.00,CLR,OVC,0.00,WeatherDisplay:10.37,2013-01-05 12:16:00,
2013-01-05 04:17:00,32.5,31.0,30.20,SSW,209,3.5,3.5,94,0.00,CLR,OVC,0.00,WeatherDisplay:10.37,2013-01-05 12:17:00,
2013-01-05 04:18:00,32.5,31.0,30.20,SSW,209,0.0,0.0,94,0.00,CLR,OVC,0.00,WeatherDisplay:10.37,2013-01-05 12:18:00,
2013-01-05 04:21:00,32.5,31.0,30.20,SSW,209,3.5,3.5,94,0.00,CLR,OVC,0.00,WeatherDisplay:10.37,2013-01-05 12:21:00,
2013-01-05 04:22:00,32.5,31.0,30.20,SSW,209,3.5,3.5,94,0.00,CLR,OVC,0.00,WeatherDisplay:10.37,2013-01-05 12:22:00,
2013-01-05 04:23:00,32.5,31.0,30.19,SSW,209,3.0,3.0,94,0.00,CLR,OVC,0.00,WeatherDisplay:10.37,2013-01-05 12:23:00,
2013-01-05 04:26:00,32.6,31.1,30.19,SSW,211,3.5,3.7,94,0.00,CLR,OVC,0.00,WeatherDisplay:10.37,2013-01-05 12:26:00,
2013-01-05 04:27:00,32.6,31.1,30.19,SSW,211,3.5,3.5,94,0.00,CLR,OVC,0.00,WeatherDisplay:10.37,2013-01-05 12:27:00,
2013-01-05 04:28:00,32.6,31.1,30.20,SSW,207,4.0,4.0,94,0.00,CLR,OVC,0.00,WeatherDisplay:10.37,2013-01-05 12:28:00,
2013-01-05 04:31:00,32.6,31.1,30.19,SSW,205,3.5,3.5,94,0.00,CLR,OVC,0.00,WeatherDisplay:10.37,2013-01-05 12:31:00,
2013-01-05 04:32:00,32.6,31.1,30.19,SSW,205,3.5,3.5,94,0.00,CLR,OVC,0.00,WeatherDisplay:10.37,2013-01-05 12:32:00,
2013-01-05 04:34:00,32.6,31.1,30.19,SSW,205,3.5,3.5,94,0.00,CLR,OVC,0.00,WeatherDisplay:10.37,2013-01-05 12:34:00,
2013-01-05 04:36:00,33.9,31.8,30.19,SSW,205,7.0,13.0,92,0.00,CLR,OVC,0.00,WeatherDisplay:10.37,2013-01-05 12:36:00,
2013-01-05 04:37:00,32.6,31.1,30.19,SSW,205,3.5,3.5,94,0.00,CLR,OVC,0.00,WeatherDisplay:10.37,2013-01-05 12:37:00,
2013-01-05 04:39:00,32.5,31.0,30.19,SSW,205,3.5,3.5,94,0.00,CLR,OVC,0.00,WeatherDisplay:10.37,2013-01-05 12:39:00,
2013-01-05 04:41:00,33.9,31.8,30.19,SSW,202,7.0,13.0,92,0.00,CLR,OVC,0.00,WeatherDisplay:10.37,2013-01-05 12:41:00,
2013-01-05 04:42:00,32.6,31.1,30.19,SSW,205,3.5,3.5,94,0.00,CLR,OVC,0.00,WeatherDisplay:10.37,2013-01-05 12:42:00,
2013-01-05 04:44:00,32.6,31.1,30.20,SSW,205,3.5,3.5,94,0.00,CLR,OVC,0.00,WeatherDisplay:10.37,2013-01-05 12:44:00,
2013-01-05 04:46:00,33.9,31.8,30.19,SSW,202,7.0,13.0,92,0.00,CLR,OVC,0.00,WeatherDisplay:10.37,2013-01-05 12:46:00,
2013-01-05 04:47:00,32.6,31.1,30.19,SSW,205,3.5,3.5,94,0.00,CLR,OVC,0.00,WeatherDisplay:10.37,2013-01-05 12:47:00,
2013-01-05 04:49:00,32.6,30.8,30.19,SSW,207,5.8,5.8,93,0.00,CLR,OVC,0.00,WeatherDisplay:10.37,2013-01-05 12:49:00,
2013-01-05 04:51:00,33.9,31.8,30.19,SSW,202,7.0,13.0,92,0.00,CLR,OVC,0.00,WeatherDisplay:10.37,2013-01-05 12:51:00,
2013-01-05 04:52:00,32.6,30.8,30.20,SW,217,4.6,4.6,93,0.00,CLR,OVC,0.00,WeatherDisplay:10.37,2013-01-05 12:52:00,
2013-01-05 04:53:00,32.6,30.8,30.20,SW,217,4.6,4.6,93,0.00,CLR,OVC,0.00,WeatherDisplay:10.37,2013-01-05 12:53:00,
2013-01-05 04:54:00,32.6,31.1,30.20,SW,217,3.5,3.5,94,0.00,CLR,OVC,0.00,WeatherDisplay:10.37,2013-01-05 12:54:00,
2013-01-05 04:56:00,33.9,31.8,30.19,SSW,202,7.0,13.0,92,0.00,CLR,OVC,0.00,WeatherDisplay:10.37,2013-01-05 12:56:00,
2013-01-05 04:57:00,32.6,31.1,30.19,SW,214,4.6,4.6,94,0.00,CLR,OVC,0.00,WeatherDisplay:10.37,2013-01-05 12:57:00,
2013-01-05 04:58:00,32.6,31.1,30.19,SW,214,3.5,3.5,94,0.00,CLR,OVC,0.00,WeatherDisplay:10.37,2013-01-05 12:58:00,
2013-01-05 04:59:00,32.6,30.8,30.19,SW,214,4.0,4.0,93,0.00,CLR,OVC,0.00,WeatherDisplay:10.37,2013-01-05 12:59:00,
2013-01-05 05:02:00,32.6,30.8,30.19,SSW,207,3.5,3.5,93,0.00,CLR,OVC,0.00,WeatherDisplay:10.37,2013-01-05 13:02:00,
2013-01-05 05:03:00,32.5,31.0,30.19,SSW,207,3.5,3.5,94,0.00,CLR,OVC,0.00,WeatherDisplay:10.37,2013-01-05 13:03:00,
2013-01-05 05:04:00,32.6,30.8,30.20,SSW,204,4.6,4.6,93,0.00,CLR,OVC,0.00,WeatherDisplay:10.37,2013-01-05 13:04:00,
2013-01-05 05:07:00,32.5,31.0,30.19,SSW,204,0.0,0.0,94,0.00,CLR,OVC,0.00,WeatherDisplay:10.37,2013-01-05 13:07:00,
2013-01-05 05:08:00,32.5,31.0,30.19,SSW,204,0.0,0.0,94,0.00,CLR,OVC,0.00,WeatherDisplay:10.37,2013-01-05 13:08:00,
2013-01-05 05:09:00,32.5,31.0,30.19,SSW,204,0.0,0.0,94,0.00,CLR,OVC,0.00,WeatherDisplay:10.37,2013-01-05 13:09:00,
2013-01-05 05:12:00,32.4,30.9,30.19,SSW,204,0.0,0.0,94,0.00,CLR,OVC,0.00,WeatherDisplay:10.37,2013-01-05 13:12:00,
2013-01-05 05:13:00,32.4,30.9,30.20,SSW,204,1.0,1.0,94,0.00,CLR,OVC,0.00,WeatherDisplay:10.37,2013-01-05 13:13:00,
2013-01-05 05:14:00,32.4,30.6,30.20,SSW,204,2.3,2.3,93,0.00,CLR,OVC,0.00,WeatherDisplay:10.37,2013-01-05 13:14:00,
2013-01-05 05:17:00,32.4,30.6,30.19,SSW,204,3.5,3.5,93,0.00,CLR,OVC,0.00,WeatherDisplay:10.37,2013-01-05 13:17:00,
2013-01-05 05:18:00,32.4,30.6,30.19,SSW,204,2.3,2.3,93,0.00,CLR,OVC,0.00,WeatherDisplay:10.37,2013-01-05 13:18:00,
2013-01-05 05:19:00,32.5,30.7,30.19,SSW,204,2.3,2.3,93,0.00,CLR,OVC,0.00,WeatherDisplay:10.37,2013-01-05 13:19:00,
2013-01-05 05:22:00,32.4,30.6,30.19,SSW,204,3.5,3.5,93,0.00,CLR,OVC,0.00,WeatherDisplay:10.37,2013-01-05 13:22:00,
2013-01-05 05:23:00,32.4,30.6,30.19,SSW,204,4.0,4.0,93,0.00,CLR,OVC,0.00,WeatherDisplay:10.37,2013-01-05 13:23:00,
2013-01-05 05:25:00,32.5,30.7,30.19,SSW,197,3.5,3.5,93,0.00,CLR,OVC,0.00,WeatherDisplay:10.37,2013-01-05 13:25:00,
2013-01-05 05:27:00,32.5,30.7,30.19,SSW,197,3.5,3.5,93,0.00,CLR,OVC,0.00,WeatherDisplay:10.37,2013-01-05 13:27:00,
2013-01-05 05:28:00,32.5,30.7,30.19,SSW,197,3.5,0.0,93,0.00,CLR,OVC,0.00,WeatherDisplay:10.37,2013-01-05 13:28:00,
2013-01-05 05:29:00,32.5,30.7,30.19,SSW,197,3.0,3.0,93,0.00,CLR,OVC,0.00,WeatherDisplay:10.37,2013-01-05 13:29:00,
2013-01-05 05:30:00,32.5,30.7,30.19,SSW,197,3.5,3.5,93,0.00,CLR,OVC,0.00,WeatherDisplay:10.37,2013-01-05 13:30:00,
2013-01-05 05:32:00,32.6,30.8,30.20,SSW,197,2.0,2.0,93,0.00,CLR,OVC,0.00,WeatherDisplay:10.37,2013-01-05 13:32:00,
2013-01-05 05:33:00,32.6,30.8,30.20,SSW,197,4.0,4.0,93,0.00,CLR,OVC,0.00,WeatherDisplay:10.37,2013-01-05 13:33:00,
2013-01-05 05:34:00,32.6,30.8,30.20,SSW,197,3.5,3.5,93,0.00,CLR,OVC,0.00,WeatherDisplay:10.37,2013-01-05 13:34:00,
2013-01-05 05:35:00,32.6,30.8,30.20,SSW,200,3.5,3.5,93,0.00,CLR,OVC,0.00,WeatherDisplay:10.37,2013-01-05 13:35:00,
2013-01-05 05:37:00,32.6,30.8,30.20,SSW,200,2.3,2.3,93,0.00,CLR,OVC,0.00,WeatherDisplay:10.37,2013-01-05 13:37:00,
2013-01-05 05:38:00,32.6,30.5,30.20,SSW,198,5.8,5.8,92,0.00,CLR,OVC,0.00,WeatherDisplay:10.37,2013-01-05 13:38:00,
2013-01-05 05:39:00,32.6,30.5,30.20,SSW,201,6.0,6.0,92,0.00,CLR,OVC,0.00,WeatherDisplay:10.37,2013-01-05 13:39:00,
2013-01-05 05:40:00,32.6,30.5,30.20,SW,215,6.0,6.0,92,0.00,CLR,OVC,0.00,WeatherDisplay:10.37,2013-01-05 13:40:00,
2013-01-05 05:43:00,32.6,30.5,30.20,SW,215,4.6,4.6,92,0.00,CLR,OVC,0.00,WeatherDisplay:10.37,2013-01-05 13:43:00,
2013-01-05 05:44:00,32.6,30.5,30.20,SW,214,3.5,3.5,92,0.00,CLR,OVC,0.00,WeatherDisplay:10.37,2013-01-05 13:44:00,
2013-01-05 05:45:00,32.5,30.7,30.20,SSW,205,3.5,3.6,93,0.00,CLR,OVC,0.00,WeatherDisplay:10.37,2013-01-05 13:45:00,
2013-01-05 05:48:00,32.5,30.4,30.20,SW,220,6.0,6.0,92,0.00,CLR,OVC,0.00,WeatherDisplay:10.37,2013-01-05 13:48:00,
2013-01-05 05:49:00,32.5,30.4,30.20,SSW,207,6.9,6.9,92,0.00,CLR,OVC,0.00,WeatherDisplay:10.37,2013-01-05 13:49:00,
2013-01-05 05:50:00,32.6,30.5,30.20,SW,218,5.8,5.8,92,0.00,CLR,OVC,0.00,WeatherDisplay:10.37,2013-01-05 13:50:00,
2013-01-05 05:53:00,32.6,30.5,30.20,SSW,206,8.1,8.1,92,0.00,CLR,OVC,0.00,WeatherDisplay:10.37,2013-01-05 13:53:00,
2013-01-05 05:54:00,32.6,30.5,30.20,SSW,207,5.8,5.8,92,0.00,CLR,OVC,0.00,WeatherDisplay:10.37,2013-01-05 13:54:00,
2013-01-05 05:55:00,32.6,30.5,30.20,SW,215,4.6,4.6,92,0.00,CLR,OVC,0.00,WeatherDisplay:10.37,2013-01-05 13:55:00,
2013-01-05 05:58:00,32.6,30.5,30.20,SSW,201,5.8,5.8,92,0.00,CLR,OVC,0.00,WeatherDisplay:10.37,2013-01-05 13:58:00,
2013-01-05 05:59:00,32.6,30.5,30.20,SSW,201,3.5,3.5,92,0.00,CLR,OVC,0.00,WeatherDisplay:10.37,2013-01-05 13:59:00,
2013-01-05 06:01:00,32.6,30.5,30.20,SSW,201,3.5,3.5,92,0.00,CLR,OVC,0.00,WeatherDisplay:10.37,2013-01-05 14:01:00,
2013-01-05 06:03:00,32.6,30.5,30.20,SSW,201,3.5,3.5,92,0.00,CLR,OVC,0.00,WeatherDisplay:10.37,2013-01-05 14:03:00,
2013-01-05 06:04:00,32.6,30.5,30.20,SSW,201,3.5,3.5,92,0.00,CLR,OVC,0.00,WeatherDisplay:10.37,2013-01-05 14:04:00,
2013-01-05 06:05:00,32.7,30.6,30.20,SSW,201,3.5,3.5,92,0.00,CLR,OVC,0.00,WeatherDisplay:10.37,2013-01-05 14:05:00,
2013-01-05 06:06:00,32.6,30.5,30.20,SSW,201,3.5,3.5,92,0.00,CLR,OVC,0.00,WeatherDisplay:10.37,2013-01-05 14:06:00,
2013-01-05 06:08:00,32.7,30.6,30.20,SSW,201,6.9,6.9,92,0.00,CLR,OVC,0.00,WeatherDisplay:10.37,2013-01-05 14:08:00,
2013-01-05 06:09:00,32.6,30.5,30.20,SSW,201,3.5,3.5,92,0.00,CLR,OVC,0.00,WeatherDisplay:10.37,2013-01-05 14:09:00,
2013-01-05 06:10:00,32.6,30.5,30.20,SSW,205,4.0,4.0,92,0.00,CLR,OVC,0.00,WeatherDisplay:10.37,2013-01-05 14:10:00,
2013-01-05 06:11:00,32.6,30.5,30.20,SSW,205,4.0,4.0,92,0.00,CLR,OVC,0.00,WeatherDisplay:10.37,2013-01-05 14:11:00,
2013-01-05 06:13:00,32.6,30.5,30.20,SSW,205,3.5,3.5,92,0.00,CLR,OVC,0.00,WeatherDisplay:10.37,2013-01-05 14:13:00,
2013-01-05 06:14:00,32.6,30.5,30.20,SSW,205,4.0,4.0,92,0.00,CLR,OVC,0.00,WeatherDisplay:10.37,2013-01-05 14:14:00,
2013-01-05 06:15:00,32.6,30.5,30.20,SSW,205,3.5,3.5,92,0.00,CLR,OVC,0.00,WeatherDisplay:10.37,2013-01-05 14:15:00,
2013-01-05 06:16:00,32.6,30.5,30.20,SSW,205,3.5,3.5,92,0.00,CLR,OVC,0.00,WeatherDisplay:10.37,2013-01-05 14:16:00,
2013-01-05 06:18:00,32.6,30.5,30.20,SSW,205,3.5,3.5,92,0.00,CLR,OVC,0.00,WeatherDisplay:10.37,2013-01-05 14:18:00,
2013-01-05 06:19:00,32.6,30.5,30.20,SSW,205,3.5,3.5,92,0.00,CLR,OVC,0.00,WeatherDisplay:10.37,2013-01-05 14:19:00,
2013-01-05 06:20:00,32.7,30.6,30.20,SSW,205,0.0,0.4,92,0.00,CLR,OVC,0.00,WeatherDisplay:10.37,2013-01-05 14:20:00,
2013-01-05 06:21:00,32.7,30.6,30.20,SSW,205,3.0,3.0,92,0.00,CLR,OVC,0.00,WeatherDisplay:10.37,2013-01-05 14:21:00,
2013-01-05 06:23:00,32.7,30.6,30.21,SSW,205,4.0,4.0,92,0.00,CLR,OVC,0.00,WeatherDisplay:10.37,2013-01-05 14:23:00,
2013-01-05 06:24:00,32.7,30.4,30.21,SSW,205,4.6,4.6,91,0.00,CLR,OVC,0.00,WeatherDisplay:10.37,2013-01-05 14:24:00,
2013-01-05 06:25:00,32.7,30.4,30.21,SSW,205,3.5,3.5,91,0.00,CLR,OVC,0.00,WeatherDisplay:10.37,2013-01-05 14:25:00,
2013-01-05 06:26:00,32.7,30.6,30.21,SSW,205,3.5,3.5,92,0.00,CLR,OVC,0.00,WeatherDisplay:10.37,2013-01-05 14:26:00,
2013-01-05 06:28:00,32.7,30.4,30.21,SSW,207,4.0,4.0,91,0.00,CLR,OVC,0.00,WeatherDisplay:10.37,2013-01-05 14:28:00,
2013-01-05 06:29:00,32.8,30.5,30.21,SSW,207,3.5,3.5,91,0.00,CLR,OVC,0.00,WeatherDisplay:10.37,2013-01-05 14:29:00,
2013-01-05 06:30:00,32.8,30.5,30.21,SSW,208,2.3,2.3,91,0.00,CLR,OVC,0.00,WeatherDisplay:10.37,2013-01-05 14:30:00,
2013-01-05 06:31:00,32.8,30.5,30.21,SSW,208,2.3,2.3,91,0.00,CLR,OVC,0.00,WeatherDisplay:10.37,2013-01-05 14:31:00,
2013-01-05 06:33:00,32.8,30.5,30.21,SSW,208,3.5,3.5,91,0.00,CLR,OVC,0.00,WeatherDisplay:10.37,2013-01-05 14:33:00,
2013-01-05 06:34:00,32.8,30.5,30.21,SSW,209,4.0,4.0,91,0.00,CLR,OVC,0.00,WeatherDisplay:10.37,2013-01-05 14:34:00,
2013-01-05 06:35:00,32.8,30.5,30.21,SSW,207,3.5,3.7,91,0.00,CLR,OVC,0.00,WeatherDisplay:10.37,2013-01-05 14:35:00,
2013-01-05 06:37:00,32.9,30.6,30.21,SSW,207,3.5,3.5,91,0.00,CLR,OVC,0.00,WeatherDisplay:10.37,2013-01-05 14:37:00,
2013-01-05 06:38:00,32.9,30.6,30.21,SSW,211,5.8,5.8,91,0.00,CLR,OVC,0.00,WeatherDisplay:10.37,2013-01-05 14:38:00,
2013-01-05 06:39:00,32.9,30.6,30.21,SSW,211,4.6,4.6,91,0.00,CLR,OVC,0.00,WeatherDisplay:10.37,2013-01-05 14:39:00,
2013-01-05 06:41:00,32.9,30.6,30.21,SSW,211,2.3,2.3,91,0.00,CLR,OVC,0.00,WeatherDisplay:10.37,2013-01-05 14:41:00,
2013-01-05 06:42:00,33.0,30.7,30.21,SSW,211,0.0,0.0,91,0.00,CLR,OVC,0.00,WeatherDisplay:10.37,2013-01-05 14:42:00,
2013-01-05 06:43:00,33.0,30.7,30.21,SSW,211,0.0,0.0,91,0.00,CLR,OVC,0.00,WeatherDisplay:10.37,2013-01-05 14:43:00,
2013-01-05 06:44:00,32.9,30.6,30.20,SSW,211,4.0,4.0,91,0.00,CLR,OVC,0.00,WeatherDisplay:10.37,2013-01-05 14:44:00,
2013-01-05 06:46:00,33.0,30.4,30.20,SSW,211,3.5,3.5,90,0.00,CLR,OVC,0.00,WeatherDisplay:10.37,2013-01-05 14:46:00,
2013-01-05 06:47:00,33.0,30.7,30.20,SSW,211,3.5,3.5,91,0.00,CLR,OVC,0.00,WeatherDisplay:10.37,2013-01-05 14:47:00,
2013-01-05 06:48:00,33.0,30.7,30.20,SSW,211,2.3,2.3,91,0.00,CLR,OVC,0.00,WeatherDisplay:10.37,2013-01-05 14:48:00,
2013-01-05 06:49:00,33.0,30.4,30.20,SSW,211,3.5,3.5,90,0.00,CLR,OVC,0.00,WeatherDisplay:10.37,2013-01-05 14:49:00,
2013-01-05 06:51:00,33.0,30.4,30.20,SSW,211,3.5,3.5,90,0.00,CLR,OVC,0.00,WeatherDisplay:10.37,2013-01-05 14:51:00,
2013-01-05 06:52:00,33.0,30.4,30.20,SSW,211,3.5,3.5,90,0.00,CLR,OVC,0.00,WeatherDisplay:10.37,2013-01-05 14:52:00,
2013-01-05 06:53:00,33.0,30.4,30.20,SSW,211,3.5,3.5,90,0.00,CLR,OVC,0.00,WeatherDisplay:10.37,2013-01-05 14:53:00,
2013-01-05 06:55:00,33.0,30.4,30.20,SSW,211,2.3,2.3,90,0.00,CLR,OVC,0.00,WeatherDisplay:10.37,2013-01-05 14:55:00,
2013-01-05 06:56:00,33.0,30.4,30.20,SSW,211,2.3,2.3,90,0.00,CLR,OVC,0.00,WeatherDisplay:10.37,2013-01-05 14:56:00,
2013-01-05 06:57:00,33.0,30.4,30.20,SSW,211,2.3,0.0,90,0.00,CLR,OVC,0.00,WeatherDisplay:10.37,2013-01-05 14:57:00,
2013-01-05 06:58:00,33.0,30.4,30.21,SSW,211,2.3,2.3,90,0.00,CLR,OVC,0.00,WeatherDisplay:10.37,2013-01-05 14:58:00,
2013-01-05 07:00:00,33.0,30.4,30.21,SSW,211,3.5,3.5,90,0.00,CLR,OVC,0.00,WeatherDisplay:10.37,2013-01-05 15:00:00,
2013-01-05 07:02:00,33.0,30.4,30.21,SSW,211,3.5,3.5,90,0.00,CLR,OVC,0.00,WeatherDisplay:10.37,2013-01-05 15:02:00,
2013-01-05 07:03:00,33.0,30.4,30.21,SW,215,3.5,3.5,90,0.00,CLR,OVC,0.00,WeatherDisplay:10.37,2013-01-05 15:03:00,
2013-01-05 07:05:00,33.0,30.4,30.21,SW,217,4.6,4.6,90,0.00,CLR,OVC,0.00,WeatherDisplay:10.37,2013-01-05 15:05:00,
2013-01-05 07:07:00,33.0,30.4,30.21,SW,217,3.5,3.5,90,0.00,CLR,OVC,0.00,WeatherDisplay:10.37,2013-01-05 15:07:00,
2013-01-05 07:09:00,33.0,30.4,30.21,SW,217,3.5,3.5,90,0.00,CLR,OVC,0.00,WeatherDisplay:10.37,2013-01-05 15:09:00,
2013-01-05 07:11:00,33.0,30.4,30.21,SW,217,3.5,3.5,90,0.00,CLR,OVC,0.00,WeatherDisplay:10.37,2013-01-05 15:11:00,
2013-01-05 07:12:00,33.1,30.5,30.21,SW,217,0.0,0.0,90,0.00,CLR,OVC,0.00,WeatherDisplay:10.37,2013-01-05 15:12:00,
2013-01-05 07:14:00,33.1,30.5,30.21,SW,217,1.1,0.0,90,0.00,CLR,OVC,0.00,WeatherDisplay:10.37,2013-01-05 15:14:00,
2013-01-05 07:16:00,33.2,30.6,30.21,SW,217,1.1,1.1,90,0.00,CLR,OVC,0.00,WeatherDisplay:10.37,2013-01-05 15:16:00,
2013-01-05 07:17:00,33.1,30.5,30.20,SW,217,1.0,1.0,90,0.00,CLR,OVC,0.00,WeatherDisplay:10.37,2013-01-05 15:17:00,
2013-01-05 07:19:00,33.2,30.6,30.20,SW,217,3.5,3.5,90,0.00,CLR,OVC,0.00,WeatherDisplay:10.37,2013-01-05 15:19:00,
2013-01-05 07:21:00,33.1,30.5,30.20,SW,217,3.5,3.5,90,0.00,CLR,OVC,0.00,WeatherDisplay:10.37,2013-01-05 15:21:00,
2013-01-05 07:22:00,33.1,30.5,30.20,SW,217,3.5,3.5,90,0.00,CLR,OVC,0.00,WeatherDisplay:10.37,2013-01-05 15:22:00,
2013-01-05 07:23:00,33.1,30.5,30.20,SW,217,3.5,3.5,90,0.00,CLR,OVC,0.00,WeatherDisplay:10.37,2013-01-05 15:23:00,
2013-01-05 07:24:00,33.0,30.4,30.20,SSW,201,4.0,4.0,90,0.00,CLR,OVC,0.00,WeatherDisplay:10.37,2013-01-05 15:24:00,
2013-01-05 07:26:00,33.1,30.5,30.20,South,186,6.9,6.9,90,0.00,CLR,OVC,0.00,WeatherDisplay:10.37,2013-01-05 15:26:00,
2013-01-05 07:27:00,33.0,30.4,30.20,South,188,7.0,7.0,90,0.00,CLR,OVC,0.00,WeatherDisplay:10.37,2013-01-05 15:27:00,
2013-01-05 07:28:00,33.1,30.5,30.20,SW,215,6.9,6.9,90,0.00,CLR,OVC,0.00,WeatherDisplay:10.37,2013-01-05 15:28:00,
2013-01-05 07:29:00,33.1,30.5,30.20,South,176,6.9,6.9,90,0.00,CLR,OVC,0.00,WeatherDisplay:10.37,2013-01-05 15:29:00,
2013-01-05 07:31:00,33.1,30.5,30.21,South,182,9.0,9.0,90,0.00,CLR,OVC,0.00,WeatherDisplay:10.37,2013-01-05 15:31:00,
2013-01-05 07:33:00,33.1,30.5,30.21,South,188,10.4,10.4,90,0.00,CLR,OVC,0.00,WeatherDisplay:10.37,2013-01-05 15:33:00,
2013-01-05 07:34:00,33.2,30.6,30.21,SSW,195,8.1,8.1,90,0.00,CLR,OVC,0.00,WeatherDisplay:10.37,2013-01-05 15:34:00,
2013-01-05 07:36:00,33.2,30.6,30.21,SSW,203,11.5,11.5,90,0.00,CLR,OVC,0.00,WeatherDisplay:10.37,2013-01-05 15:36:00,
2013-01-05 07:38:00,33.1,30.2,30.21,SSW,209,6.9,6.9,89,0.00,CLR,OVC,0.00,WeatherDisplay:10.37,2013-01-05 15:38:00,
2013-01-05 07:39:00,33.1,30.5,30.21,SSW,202,10.4,10.4,90,0.00,CLR,OVC,0.00,WeatherDisplay:10.37,2013-01-05 15:39:00,
2013-01-05 07:41:00,33.1,30.5,30.21,South,182,8.1,8.1,90,0.00,CLR,OVC,0.00,WeatherDisplay:10.37,2013-01-05 15:41:00,
2013-01-05 07:43:00,33.1,30.5,30.21,South,188,11.5,11.5,90,0.00,CLR,OVC,0.00,WeatherDisplay:10.37,2013-01-05 15:43:00,
2013-01-05 07:44:00,33.1,30.2,30.20,SSW,197,8.1,8.1,89,0.00,CLR,OVC,0.00,WeatherDisplay:10.37,2013-01-05 15:44:00,
2013-01-05 07:47:00,33.1,30.5,30.20,SE,136,6.9,6.9,90,0.00,CLR,OVC,0.00,WeatherDisplay:10.37,2013-01-05 15:47:00,
2013-01-05 07:48:00,33.1,30.2,30.20,SE,128,12.0,12.0,89,0.00,CLR,OVC,0.00,WeatherDisplay:10.37,2013-01-05 15:48:00,
2013-01-05 07:49:00,33.3,30.4,30.20,South,171,11.5,11.5,89,0.00,CLR,OVC,0.00,WeatherDisplay:10.37,2013-01-05 15:49:00,
2013-01-05 07:52:00,33.5,30.3,30.20,South,180,11.5,11.5,88,0.00,CLR,OVC,0.00,WeatherDisplay:10.37,2013-01-05 15:52:00,
2013-01-05 07:53:00,33.5,30.3,30.20,SE,133,11.5,11.5,88,0.00,CLR,OVC,0.00,WeatherDisplay:10.37,2013-01-05 15:53:00,
2013-01-05 07:54:00,33.5,30.3,30.20,South,190,11.0,11.0,88,0.00,CLR,OVC,0.00,WeatherDisplay:10.37,2013-01-05 15:54:00,
2013-01-05 07:58:00,33.7,30.2,30.21,SSW,205,15.0,15.0,87,0.00,CLR,OVC,0.00,WeatherDisplay:10.37,2013-01-05 15:58:00,
2013-01-05 07:59:00,33.7,30.2,30.21,SSW,206,11.5,11.5,87,0.00,CLR,OVC,0.00,WeatherDisplay:10.37,2013-01-05 15:59:00,
2013-01-05 08:03:00,33.9,30.4,30.21,SW,215,13.8,13.8,87,0.00,CLR,OVC,0.00,WeatherDisplay:10.37,2013-01-05 16:03:00,
2013-01-05 08:04:00,34.0,30.3,30.21,South,180,13.8,13.8,86,0.00,CLR,OVC,0.00,WeatherDisplay:10.37,2013-01-05 16:04:00,
2013-01-05 08:08:00,34.0,30.5,30.21,SW,221,10.4,10.4,87,0.00,CLR,OVC,0.00,WeatherDisplay:10.37,2013-01-05 16:08:00,
2013-01-05 08:09:00,34.0,30.5,30.21,SW,228,10.4,10.4,87,0.00,CLR,OVC,0.00,WeatherDisplay:10.37,2013-01-05 16:09:00,
2013-01-05 08:10:00,33.9,30.4,30.21,SW,220,10.4,10.4,87,0.00,CLR,OVC,0.00,WeatherDisplay:10.37,2013-01-05 16:10:00,
2013-01-05 08:13:00,33.8,30.3,30.22,SSW,211,11.5,11.5,87,0.00,CLR,OVC,0.00,WeatherDisplay:10.37,2013-01-05 16:13:00,
2013-01-05 08:14:00,33.8,30.3,30.22,SSW,206,11.5,11.5,87,0.00,CLR,OVC,0.00,WeatherDisplay:10.37,2013-01-05 16:14:00,
2013-01-05 08:15:00,33.8,30.3,30.22,SW,220,11.5,11.5,87,0.00,CLR,OVC,0.00,WeatherDisplay:10.37,2013-01-05 16:15:00,
2013-01-05 08:18:00,33.8,30.3,30.22,SSW,207,8.1,8.1,87,0.00,CLR,OVC,0.00,WeatherDisplay:10.37,2013-01-05 16:18:00,
2013-01-05 08:19:00,33.8,30.6,30.22,South,183,11.5,11.5,88,0.00,CLR,OVC,0.00,WeatherDisplay:10.37,2013-01-05 16:19:00,
2013-01-05 08:20:00,33.8,30.3,30.22,SSW,200,11.5,11.5,87,0.00,CLR,OVC,0.00,WeatherDisplay:10.37,2013-01-05 16:20:00,
2013-01-05 08:23:00,33.7,30.5,30.22,SW,216,8.1,8.1,88,0.00,CLR,OVC,0.00,WeatherDisplay:10.37,2013-01-05 16:23:00,
2013-01-05 08:24:00,33.6,30.4,30.22,SSW,196,10.0,10.0,88,0.00,CLR,OVC,0.00,WeatherDisplay:10.37,2013-01-05 16:24:00,
2013-01-05 08:25:00,33.6,30.4,30.22,South,184,10.4,10.4,88,0.00,CLR,OVC,0.00,WeatherDisplay:10.37,2013-01-05 16:25:00,
2013-01-05 08:28:00,33.5,30.6,30.22,South,185,7.0,7.0,89,0.00,CLR,OVC,0.00,WeatherDisplay:10.37,2013-01-05 16:28:00,
2013-01-05 08:30:00,33.5,30.6,30.22,SSW,202,6.9,6.9,89,0.00,CLR,OVC,0.00,WeatherDisplay:10.37,2013-01-05 16:30:00,
2013-01-05 08:34:00,33.5,30.6,30.22,South,171,7.0,7.0,89,0.00,CLR,OVC,0.00,WeatherDisplay:10.37,2013-01-05 16:34:00,
2013-01-05 08:35:00,33.4,30.5,30.22,South,182,8.0,8.0,89,0.00,CLR,OVC,0.00,WeatherDisplay:10.37,2013-01-05 16:35:00,
2013-01-05 08:36:00,33.5,30.6,30.22,SSW,194,9.2,9.2,89,0.00,CLR,OVC,0.00,WeatherDisplay:10.37,2013-01-05 16:36:00,
2013-01-05 08:39:00,33.4,30.5,30.22,SSW,194,6.9,6.9,89,0.00,CLR,OVC,0.00,WeatherDisplay:10.37,2013-01-05 16:39:00,
2013-01-05 08:40:00,33.4,30.5,30.22,SSW,212,7.0,7.0,89,0.00,CLR,OVC,0.00,WeatherDisplay:10.37,2013-01-05 16:40:00,
2013-01-05 08:41:00,33.4,30.5,30.22,SSW,194,6.9,6.9,89,0.00,CLR,OVC,0.00,WeatherDisplay:10.37,2013-01-05 16:41:00,
2013-01-05 08:44:00,33.4,30.5,30.22,SSW,203,3.5,3.5,89,0.00,CLR,OVC,0.00,WeatherDisplay:10.37,2013-01-05 16:44:00,
2013-01-05 08:45:00,33.4,30.5,30.22,SSW,203,3.5,3.5,89,0.00,CLR,OVC,0.00,WeatherDisplay:10.37,2013-01-05 16:45:00,
2013-01-05 08:46:00,33.4,30.5,30.22,SSW,203,3.5,3.5,89,0.00,CLR,OVC,0.00,WeatherDisplay:10.37,2013-01-05 16:46:00,
2013-01-05 08:49:00,33.4,30.5,30.22,SSW,207,4.6,4.6,89,0.00,CLR,OVC,0.00,WeatherDisplay:10.37,2013-01-05 16:49:00,
2013-01-05 08:50:00,33.5,30.6,30.22,SSW,207,4.6,4.6,89,0.00,CLR,OVC,0.00,WeatherDisplay:10.37,2013-01-05 16:50:00,
2013-01-05 08:51:00,33.5,30.6,30.22,SSW,207,3.5,3.5,89,0.00,CLR,OVC,0.00,WeatherDisplay:10.37,2013-01-05 16:51:00,
2013-01-05 08:55:00,33.5,30.6,30.22,SSW,195,8.0,8.0,89,0.00,CLR,OVC,0.00,WeatherDisplay:10.37,2013-01-05 16:55:00,
2013-01-05 08:56:00,33.6,30.7,30.23,SSW,202,9.2,9.2,89,0.00,CLR,OVC,0.00,WeatherDisplay:10.37,2013-01-05 16:56:00,
2013-01-05 10:03:00,34.9,30.8,30.22,SSW,199,11.5,0.0,85,0.00,CLR,OVC,0.00,WeatherDisplay:10.37,2013-01-05 18:03:00,
2013-01-05 10:04:00,34.9,30.8,30.22,SSW,199,11.5,0.0,85,0.00,CLR,OVC,0.00,WeatherDisplay:10.37,2013-01-05 18:04:00,
2013-01-05 10:08:00,35.0,30.7,30.22,SW,225,15.0,15.0,84,0.00,CLR,OVC,0.00,WeatherDisplay:10.37,2013-01-05 18:08:00,
2013-01-05 10:09:00,35.0,30.7,30.22,SSW,196,14.0,14.0,84,0.00,CLR,OVC,0.00,WeatherDisplay:10.37,2013-01-05 18:09:00,
2013-01-05 10:13:00,35.0,30.7,30.23,SSW,192,11.5,11.5,84,0.00,CLR,OVC,0.00,WeatherDisplay:10.37,2013-01-05 18:13:00,
2013-01-05 10:14:00,35.0,30.7,30.23,South,191,13.8,13.8,84,0.00,CLR,OVC,0.00,WeatherDisplay:10.37,2013-01-05 18:14:00,
2013-01-05 10:19:00,34.9,30.8,30.22,SW,225,11.5,11.5,85,0.00,CLR,OVC,0.00,WeatherDisplay:10.37,2013-01-05 18:19:00,
2013-01-05 10:24:00,34.8,30.8,30.22,SW,228,11.5,11.5,85,0.00,CLR,OVC,0.00,WeatherDisplay:10.37,2013-01-05 18:24:00,
2013-01-05 10:29:00,34.8,30.8,30.23,SW,229,8.1,8.1,85,0.00,CLR,OVC,0.00,WeatherDisplay:10.37,2013-01-05 18:29:00,
2013-01-05 10:30:00,34.8,30.8,30.23,SSW,192,10.4,10.4,85,0.00,CLR,OVC,0.00,WeatherDisplay:10.37,2013-01-05 18:30:00,
2013-01-05 10:34:00,34.8,30.8,30.23,SSW,213,11.0,11.0,85,0.00,CLR,OVC,0.00,WeatherDisplay:10.37,2013-01-05 18:34:00,
2013-01-05 10:35:00,34.8,30.8,30.23,SW,232,11.5,11.5,85,0.00,CLR,OVC,0.00,WeatherDisplay:10.37,2013-01-05 18:35:00,
2013-01-05 10:39:00,34.9,30.8,30.22,SSW,202,10.0,10.0,85,0.00,CLR,OVC,0.00,WeatherDisplay:10.37,2013-01-05 18:39:00,
2013-01-05 10:40:00,34.9,30.8,30.22,SW,222,10.4,10.4,85,0.00,CLR,OVC,0.00,WeatherDisplay:10.37,2013-01-05 18:40:00,
2013-01-05 10:44:00,35.0,30.9,30.22,SSW,198,9.2,9.2,85,0.00,CLR,OVC,0.00,WeatherDisplay:10.37,2013-01-05 18:44:00,
2013-01-05 10:45:00,35.0,30.9,30.22,SSW,209,9.2,9.2,85,0.00,CLR,OVC,0.00,WeatherDisplay:10.37,2013-01-05 18:45:00,
2013-01-05 10:49:00,35.1,31.0,30.22,SSW,211,5.8,5.8,85,0.00,CLR,OVC,0.00,WeatherDisplay:10.37,2013-01-05 18:49:00,
2013-01-05 10:50:00,35.1,31.0,30.22,SSW,194,6.9,6.9,85,0.00,CLR,OVC,0.00,WeatherDisplay:10.37,2013-01-05 18:50:00,
2013-01-05 10:55:00,35.1,31.0,30.22,SW,218,6.9,6.9,85,0.00,CLR,OVC,0.00,WeatherDisplay:10.37,2013-01-05 18:55:00,
2013-01-05 10:56:00,35.1,31.0,30.22,SSW,212,9.2,9.2,85,0.00,CLR,OVC,0.00,WeatherDisplay:10.37,2013-01-05 18:56:00,
2013-01-05 11:00:00,35.1,31.0,30.23,SW,217,12.0,12.0,85,0.00,CLR,OVC,0.00,WeatherDisplay:10.37,2013-01-05 19:00:00,
2013-01-05 11:01:00,35.1,31.0,30.23,SSW,207,13.8,13.8,85,0.00,CLR,OVC,0.00,WeatherDisplay:10.37,2013-01-05 19:01:00,
2013-01-05 11:05:00,35.1,31.0,30.23,SW,219,13.8,13.8,85,0.00,CLR,OVC,0.00,WeatherDisplay:10.37,2013-01-05 19:05:00,
2013-01-05 11:06:00,35.2,31.1,30.23,SW,216,11.0,11.0,85,0.00,CLR,OVC,0.00,WeatherDisplay:10.37,2013-01-05 19:06:00,
2013-01-05 11:10:00,35.5,31.4,30.23,SW,223,11.5,11.5,85,0.00,CLR,OVC,0.00,WeatherDisplay:10.37,2013-01-05 19:10:00,
2013-01-05 11:11:00,35.5,31.4,30.23,SW,220,6.9,6.9,85,0.00,CLR,OVC,0.00,WeatherDisplay:10.37,2013-01-05 19:11:00,
2013-01-05 11:15:00,35.5,31.7,30.23,SW,220,5.8,5.8,86,0.00,CLR,OVC,0.00,WeatherDisplay:10.37,2013-01-05 19:15:00,
2013-01-05 11:16:00,35.4,31.6,30.23,SW,232,6.0,6.0,86,0.00,CLR,OVC,0.00,WeatherDisplay:10.37,2013-01-05 19:16:00,
2013-01-05 11:20:00,35.4,31.9,30.23,SW,223,4.6,4.6,87,0.00,CLR,OVC,0.00,WeatherDisplay:10.37,2013-01-05 19:20:00,
2013-01-05 11:21:00,35.4,31.9,30.23,SW,227,4.6,4.6,87,0.00,CLR,OVC,0.00,WeatherDisplay:10.37,2013-01-05 19:21:00,
2013-01-05 11:25:00,35.7,31.9,30.23,SW,225,6.9,6.9,86,0.00,CLR,OVC,0.00,WeatherDisplay:10.37,2013-01-05 19:25:00,
2013-01-05 11:26:00,35.7,31.9,30.23,SW,232,6.9,6.9,86,0.00,CLR,OVC,0.00,WeatherDisplay:10.37,2013-01-05 19:26:00,
2013-01-05 11:30:00,36.1,32.0,30.22,SW,221,3.0,6.0,85,0.00,CLR,OVC,0.00,WeatherDisplay:10.37,2013-01-05 19:30:00,
2013-01-05 11:31:00,36.1,32.3,30.22,SSW,211,5.0,5.0,86,0.00,CLR,OVC,0.00,WeatherDisplay:10.37,2013-01-05 19:31:00,
2013-01-05 11:35:00,36.4,32.3,30.22,SW,217,8.1,8.1,85,0.00,CLR,OVC,0.00,WeatherDisplay:10.37,2013-01-05 19:35:00,
2013-01-05 11:36:00,36.5,32.4,30.22,SW,223,6.9,6.9,85,0.00,CLR,OVC,0.00,WeatherDisplay:10.37,2013-01-05 19:36:00,
2013-01-05 11:37:00,36.6,32.5,30.22,SSW,200,5.0,5.0,85,0.00,CLR,OVC,0.00,WeatherDisplay:10.37,2013-01-05 19:37:00,
2013-01-05 11:40:00,36.8,32.7,30.22,SW,216,6.0,7.0,85,0.00,CLR,OVC,0.00,WeatherDisplay:10.37,2013-01-05 19:40:00,
2013-01-05 11:41:00,36.8,32.7,30.22,SSW,210,5.8,5.8,85,0.00,CLR,OVC,0.00,WeatherDisplay:10.37,2013-01-05 19:41:00,
2013-01-05 11:42:00,36.8,32.4,30.22,SW,219,8.0,8.0,84,0.00,CLR,OVC,0.00,WeatherDisplay:10.37,2013-01-05 19:42:00,
2013-01-05 11:45:00,37.0,32.3,30.21,SSW,211,8.1,8.1,83,0.00,CLR,OVC,0.00,WeatherDisplay:10.37,2013-01-05 19:45:00,
2013-01-05 11:46:00,37.0,32.6,30.21,SSW,205,6.9,6.9,84,0.00,CLR,OVC,0.00,WeatherDisplay:10.37,2013-01-05 19:46:00,
2013-01-05 11:47:00,37.0,32.6,30.21,South,190,8.1,8.1,84,0.00,CLR,OVC,0.00,WeatherDisplay:10.37,2013-01-05 19:47:00,
2013-01-05 11:51:00,37.0,32.9,30.21,SSW,193,8.1,8.1,85,0.00,CLR,OVC,0.00,WeatherDisplay:10.37,2013-01-05 19:51:00,
2013-01-05 11:52:00,37.0,32.6,30.22,SSW,195,10.4,10.4,84,0.00,CLR,OVC,0.00,WeatherDisplay:10.37,2013-01-05 19:52:00,
2013-01-05 11:56:00,36.8,32.7,30.21,SW,221,5.8,5.8,85,0.00,CLR,OVC,0.00,WeatherDisplay:10.37,2013-01-05 19:56:00,
2013-01-05 11:57:00,36.8,32.7,30.21,SSW,213,8.1,8.1,85,0.00,CLR,OVC,0.00,WeatherDisplay:10.37,2013-01-05 19:57:00,
2013-01-05 12:01:00,36.7,32.9,30.21,SW,217,6.9,6.9,86,0.00,CLR,OVC,0.00,WeatherDisplay:10.37,2013-01-05 20:01:00,
2013-01-05 12:02:00,36.7,32.6,30.21,SW,215,6.9,6.9,85,0.00,CLR,OVC,0.00,WeatherDisplay:10.37,2013-01-05 20:02:00,
2013-01-05 12:06:00,36.7,32.6,30.21,SSW,204,7.0,7.0,85,0.00,CLR,OVC,0.00,WeatherDisplay:10.37,2013-01-05 20:06:00,
2013-01-05 12:07:00,36.6,32.5,30.20,SSW,201,6.9,6.9,85,0.00,CLR,OVC,0.00,WeatherDisplay:10.37,2013-01-05 20:07:00,
2013-01-05 12:08:00,36.6,32.5,30.21,SSE,165,6.9,6.9,85,0.00,CLR,OVC,0.00,WeatherDisplay:10.37,2013-01-05 20:08:00,
2013-01-05 12:11:00,36.5,32.4,30.20,South,191,3.5,4.0,85,0.00,CLR,OVC,0.00,WeatherDisplay:10.37,2013-01-05 20:11:00,
2013-01-05 12:12:00,36.5,32.4,30.20,South,173,6.0,6.0,85,0.00,CLR,OVC,0.00,WeatherDisplay:10.37,2013-01-05 20:12:00,
2013-01-05 12:13:00,36.4,32.3,30.20,South,184,5.8,5.8,85,0.00,CLR,OVC,0.00,WeatherDisplay:10.37,2013-01-05 20:13:00,
2013-01-05 12:16:00,36.3,32.5,30.20,SSW,198,8.1,8.1,86,0.00,CLR,OVC,0.00,WeatherDisplay:10.37,2013-01-05 20:16:00,
2013-01-05 12:17:00,36.3,32.5,30.20,SSW,204,6.9,6.9,86,0.00,CLR,OVC,0.00,WeatherDisplay:10.37,2013-01-05 20:17:00,
2013-01-05 12:18:00,36.2,32.1,30.20,SSW,209,8.1,8.1,85,0.00,CLR,OVC,0.00,WeatherDisplay:10.37,2013-01-05 20:18:00,
2013-01-05 12:22:00,36.2,32.4,30.20,SW,215,10.4,10.4,86,0.00,CLR,OVC,0.00,WeatherDisplay:10.37,2013-01-05 20:22:00,
2013-01-05 12:23:00,36.2,32.4,30.20,SW,227,8.1,8.1,86,0.00,CLR,OVC,0.00,WeatherDisplay:10.37,2013-01-05 20:23:00,
2013-01-05 12:27:00,36.1,32.3,30.20,SSW,203,8.1,8.1,86,0.00,CLR,OVC,0.00,WeatherDisplay:10.37,2013-01-05 20:27:00,
2013-01-05 12:28:00,36.1,32.6,30.20,SSW,206,6.9,6.9,87,0.00,CLR,OVC,0.00,WeatherDisplay:10.37,2013-01-05 20:28:00,
2013-01-05 12:32:00,36.1,32.6,30.20,SSW,204,5.8,5.8,87,0.00,CLR,OVC,0.00,WeatherDisplay:10.37,2013-01-05 20:32:00,
2013-01-05 12:33:00,36.1,32.6,30.20,SSW,209,4.6,4.6,87,0.00,CLR,OVC,0.00,WeatherDisplay:10.37,2013-01-05 20:33:00,
2013-01-05 12:37:00,36.1,32.6,30.19,South,187,9.0,9.0,87,0.00,CLR,OVC,0.00,WeatherDisplay:10.37,2013-01-05 20:37:00,
2013-01-05 12:38:00,36.1,32.6,30.19,South,184,10.4,10.4,87,0.00,CLR,OVC,0.00,WeatherDisplay:10.37,2013-01-05 20:38:00,
2013-01-05 12:42:00,36.0,32.8,30.19,South,171,9.0,9.0,88,0.00,CLR,OVC,0.00,WeatherDisplay:10.37,2013-01-05 20:42:00,
2013-01-05 12:43:00,36.0,32.5,30.19,South,188,9.2,9.2,87,0.00,CLR,OVC,0.00,WeatherDisplay:10.37,2013-01-05 20:43:00,
2013-01-05 12:47:00,35.9,32.7,30.19,South,187,9.2,9.2,88,0.00,CLR,OVC,0.00,WeatherDisplay:10.37,2013-01-05 20:47:00,
2013-01-05 12:48:00,35.8,32.6,30.19,South,188,6.9,6.9,88,0.00,CLR,OVC,0.00,WeatherDisplay:10.37,2013-01-05 20:48:00,
2013-01-05 12:52:00,35.8,32.6,30.19,South,186,10.4,10.4,88,0.00,CLR,OVC,0.00,WeatherDisplay:10.37,2013-01-05 20:52:00,
2013-01-05 12:53:00,35.8,32.6,30.19,SSW,200,9.2,9.2,88,0.00,CLR,OVC,0.00,WeatherDisplay:10.37,2013-01-05 20:53:00,
2013-01-05 12:57:00,35.9,33.0,30.18,South,187,4.6,4.6,89,0.00,CLR,OVC,0.00,WeatherDisplay:10.37,2013-01-05 20:57:00,
2013-01-05 12:58:00,35.9,33.0,30.18,SSW,205,5.8,5.8,89,0.00,CLR,OVC,0.00,WeatherDisplay:10.37,2013-01-05 20:58:00,
2013-01-05 13:02:00,36.0,33.1,30.18,SSW,213,5.0,5.0,89,0.00,CLR,OVC,0.00,WeatherDisplay:10.37,2013-01-05 21:02:00,
2013-01-05 13:03:00,36.0,33.1,30.18,SSW,198,6.9,6.9,89,0.00,CLR,OVC,0.00,WeatherDisplay:10.37,2013-01-05 21:03:00,
2013-01-05 13:04:00,36.0,33.1,30.18,South,182,6.0,6.0,89,0.00,CLR,OVC,0.00,WeatherDisplay:10.37,2013-01-05 21:04:00,
2013-01-05 13:08:00,36.1,33.2,30.18,SW,225,8.1,8.1,89,0.00,CLR,OVC,0.00,WeatherDisplay:10.37,2013-01-05 21:08:00,
2013-01-05 13:09:00,36.1,33.2,30.18,SSW,200,8.0,8.0,89,0.00,CLR,OVC,0.00,WeatherDisplay:10.37,2013-01-05 21:09:00,
2013-01-05 13:13:00,36.1,33.2,30.18,SSW,196,8.1,8.1,89,0.00,CLR,OVC,0.00,WeatherDisplay:10.37,2013-01-05 21:13:00,
2013-01-05 13:14:00,36.1,33.2,30.18,SW,223,9.2,9.2,89,0.00,CLR,OVC,0.00,WeatherDisplay:10.37,2013-01-05 21:14:00,
2013-01-05 13:18:00,36.1,33.2,30.18,SSW,210,11.5,11.5,89,0.00,CLR,OVC,0.00,WeatherDisplay:10.37,2013-01-05 21:18:00,
2013-01-05 13:19:00,36.0,33.1,30.18,SSW,208,10.4,10.4,89,0.00,CLR,OVC,0.00,WeatherDisplay:10.37,2013-01-05 21:19:00,
2013-01-05 13:23:00,36.0,33.1,30.18,SW,224,10.4,10.4,89,0.00,CLR,OVC,0.00,WeatherDisplay:10.37,2013-01-05 21:23:00,
2013-01-05 13:24:00,36.0,33.1,30.18,SW,234,10.4,10.4,89,0.00,CLR,OVC,0.00,WeatherDisplay:10.37,2013-01-05 21:24:00,
2013-01-05 13:28:00,36.1,33.5,30.18,SSW,211,8.1,8.1,90,0.00,CLR,OVC,0.00,WeatherDisplay:10.37,2013-01-05 21:28:00,
2013-01-05 13:29:00,36.1,33.5,30.18,SSW,207,6.9,6.9,90,0.00,CLR,OVC,0.00,WeatherDisplay:10.37,2013-01-05 21:29:00,
2013-01-05 13:33:00,36.1,33.5,30.18,SW,224,5.8,5.8,90,0.00,CLR,OVC,0.00,WeatherDisplay:10.37,2013-01-05 21:33:00,
2013-01-05 13:34:00,36.1,33.5,30.18,SSW,209,8.0,8.0,90,0.00,CLR,OVC,0.00,WeatherDisplay:10.37,2013-01-05 21:34:00,
2013-01-05 13:35:00,36.1,33.5,30.18,SW,219,10.4,10.4,90,0.00,CLR,OVC,0.00,WeatherDisplay:10.37,2013-01-05 21:35:00,
2013-01-05 13:38:00,36.1,33.5,30.18,SW,229,8.1,8.1,90,0.00,CLR,OVC,0.00,WeatherDisplay:10.37,2013-01-05 21:38:00,
2013-01-05 13:39:00,36.0,33.4,30.18,SW,231,5.8,5.8,90,0.00,CLR,OVC,0.00,WeatherDisplay:10.37,2013-01-05 21:39:00,
2013-01-05 13:40:00,36.0,33.4,30.18,SW,230,4.6,4.6,90,0.00,CLR,OVC,0.00,WeatherDisplay:10.37,2013-01-05 21:40:00,
2013-01-05 13:43:00,36.1,33.7,30.18,SSW,213,4.0,4.1,91,0.00,CLR,OVC,0.00,WeatherDisplay:10.37,2013-01-05 21:43:00,
2013-01-05 13:44:00,36.1,33.5,30.18,SW,217,4.6,4.6,90,0.00,CLR,OVC,0.00,WeatherDisplay:10.37,2013-01-05 21:44:00,
2013-01-05 13:45:00,36.1,33.7,30.18,SW,214,5.0,5.0,91,0.00,CLR,OVC,0.00,WeatherDisplay:10.37,2013-01-05 21:45:00,
2013-01-05 13:49:00,36.2,33.8,30.18,SW,230,4.6,4.6,91,0.00,CLR,OVC,0.00,WeatherDisplay:10.37,2013-01-05 21:49:00,
2013-01-05 13:50:00,36.2,33.8,30.18,SW,225,3.5,3.5,91,0.00,CLR,OVC,0.00,WeatherDisplay:10.37,2013-01-05 21:50:00,
2013-01-05 13:54:00,36.3,33.6,30.18,SW,231,4.6,4.6,90,0.00,CLR,OVC,0.00,WeatherDisplay:10.37,2013-01-05 21:54:00,
2013-01-05 13:55:00,36.3,33.6,30.18,SW,223,3.5,3.5,90,0.00,CLR,OVC,0.00,WeatherDisplay:10.37,2013-01-05 21:55:00,
2013-01-05 13:59:00,36.4,33.7,30.18,SW,225,3.5,3.5,90,0.00,CLR,OVC,0.00,WeatherDisplay:10.37,2013-01-05 21:59:00,
2013-01-05 14:00:00,36.4,34.0,30.18,SW,225,3.5,0.0,91,0.00,CLR,OVC,0.00,WeatherDisplay:10.37,2013-01-05 22:00:00,
2013-01-05 14:01:00,36.4,34.0,30.18,SW,225,0.0,0.0,91,0.00,CLR,OVC,0.00,WeatherDisplay:10.37,2013-01-05 22:01:00,
2013-01-05 14:04:00,36.5,34.1,30.18,SW,225,0.0,0.2,91,0.00,CLR,OVC,0.00,WeatherDisplay:10.37,2013-01-05 22:04:00,
2013-01-05 14:05:00,36.5,34.1,30.18,SW,225,1.1,1.1,91,0.00,CLR,OVC,0.00,WeatherDisplay:10.37,2013-01-05 22:05:00,
2013-01-05 14:06:00,36.5,34.1,30.18,SW,225,2.3,2.3,91,0.00,CLR,OVC,0.00,WeatherDisplay:10.37,2013-01-05 22:06:00,
2013-01-05 14:09:00,36.5,34.1,30.18,SW,225,0.0,0.0,91,0.00,CLR,OVC,0.00,WeatherDisplay:10.37,2013-01-05 22:09:00,
2013-01-05 14:10:00,36.5,34.1,30.18,SW,225,0.0,0.0,91,0.00,CLR,OVC,0.00,WeatherDisplay:10.37,2013-01-05 22:10:00,
2013-01-05 14:11:00,36.8,33.9,30.18,SW,229,4.0,4.0,89,0.00,CLR,OVC,0.00,WeatherDisplay:10.37,2013-01-05 22:11:00,
2013-01-05 14:15:00,37.0,34.1,30.18,SW,230,4.6,4.6,89,0.00,CLR,OVC,0.00,WeatherDisplay:10.37,2013-01-05 22:15:00,
2013-01-05 14:16:00,37.0,34.1,30.18,SW,228,5.0,5.0,89,0.00,CLR,OVC,0.00,WeatherDisplay:10.37,2013-01-05 22:16:00,
2013-01-05 14:20:00,37.1,34.2,30.19,SW,232,6.9,6.9,89,0.00,CLR,OVC,0.00,WeatherDisplay:10.37,2013-01-05 22:20:00,
2013-01-05 14:21:00,37.1,34.2,30.18,SW,224,6.9,6.9,89,0.00,CLR,OVC,0.00,WeatherDisplay:10.37,2013-01-05 22:21:00,
2013-01-05 14:25:00,37.0,34.1,30.18,SW,225,6.9,6.9,89,0.00,CLR,OVC,0.00,WeatherDisplay:10.37,2013-01-05 22:25:00,
2013-01-05 14:26:00,37.1,34.2,30.19,SW,227,6.9,6.9,89,0.00,CLR,OVC,0.00,WeatherDisplay:10.37,2013-01-05 22:26:00,
2013-01-05 14:27:00,37.0,34.1,30.19,SW,228,5.8,5.8,89,0.00,CLR,OVC,0.00,WeatherDisplay:10.37,2013-01-05 22:27:00,
2013-01-05 14:30:00,37.1,34.2,30.18,SW,227,5.8,5.8,89,0.00,CLR,OVC,0.00,WeatherDisplay:10.37,2013-01-05 22:30:00,
2013-01-05 14:31:00,37.1,34.2,30.18,SW,231,4.6,4.6,89,0.00,CLR,OVC,0.00,WeatherDisplay:10.37,2013-01-05 22:31:00,
2013-01-05 14:32:00,37.1,34.2,30.18,SW,232,5.8,5.8,89,0.00,CLR,OVC,0.00,WeatherDisplay:10.37,2013-01-05 22:32:00,
2013-01-05 14:35:00,37.1,34.2,30.18,SW,227,5.8,5.8,89,0.00,CLR,OVC,0.00,WeatherDisplay:10.37,2013-01-05 22:35:00,
2013-01-05 14:36:00,37.1,34.2,30.18,SW,217,5.8,5.8,89,0.00,CLR,OVC,0.00,WeatherDisplay:10.37,2013-01-05 22:36:00,
2013-01-05 14:37:00,37.1,34.2,30.18,SW,217,6.9,6.9,89,0.00,CLR,OVC,0.00,WeatherDisplay:10.37,2013-01-05 22:37:00,
2013-01-05 14:40:00,37.1,34.2,30.18,SSW,207,5.8,6.0,89,0.00,CLR,OVC,0.00,WeatherDisplay:10.37,2013-01-05 22:40:00,
2013-01-05 14:41:00,37.1,34.2,30.18,SSW,209,8.1,8.1,89,0.00,CLR,OVC,0.00,WeatherDisplay:10.37,2013-01-05 22:41:00,
2013-01-05 14:42:00,37.2,34.3,30.18,SSW,206,6.9,6.9,89,0.00,CLR,OVC,0.00,WeatherDisplay:10.37,2013-01-05 22:42:00,
2013-01-05 14:46:00,37.2,34.3,30.18,SW,217,5.8,5.8,89,0.00,CLR,OVC,0.00,WeatherDisplay:10.37,2013-01-05 22:46:00,
2013-01-05 14:47:00,37.1,34.4,30.18,SW,222,5.8,5.8,90,0.00,CLR,OVC,0.00,WeatherDisplay:10.37,2013-01-05 22:47:00,
2013-01-05 14:51:00,37.1,34.4,30.18,SW,219,5.8,5.8,90,0.00,CLR,OVC,0.00,WeatherDisplay:10.37,2013-01-05 22:51:00,
2013-01-05 14:52:00,37.1,34.4,30.18,SSW,207,5.0,5.0,90,0.00,CLR,OVC,0.00,WeatherDisplay:10.37,2013-01-05 22:52:00,
2013-01-05 14:56:00,36.8,34.1,30.18,SSW,193,6.9,6.9,90,0.00,CLR,OVC,0.00,WeatherDisplay:10.37,2013-01-05 22:56:00,
2013-01-05 14:57:00,36.8,34.1,30.18,SSW,207,6.9,6.9,90,0.00,CLR,OVC,0.00,WeatherDisplay:10.37,2013-01-05 22:57:00,
2013-01-05 15:01:00,36.5,33.8,30.18,SSW,204,8.1,8.1,90,0.00,CLR,OVC,0.00,WeatherDisplay:10.37,2013-01-05 23:01:00,
2013-01-05 15:02:00,36.5,33.8,30.18,SSW,198,8.1,8.1,90,0.00,CLR,OVC,0.00,WeatherDisplay:10.37,2013-01-05 23:02:00,
2013-01-05 15:06:00,36.4,33.7,30.18,SSW,194,9.0,9.0,90,0.00,CLR,OVC,0.00,WeatherDisplay:10.37,2013-01-05 23:06:00,
2013-01-05 15:07:00,36.4,33.7,30.18,SSW,213,9.2,9.2,90,0.00,CLR,OVC,0.00,WeatherDisplay:10.37,2013-01-05 23:07:00,
2013-01-05 15:11:00,36.4,33.7,30.18,South,189,6.0,6.0,90,0.00,CLR,OVC,0.00,WeatherDisplay:10.37,2013-01-05 23:11:00,
2013-01-05 15:12:00,36.4,33.7,30.18,SSW,199,8.1,8.1,90,0.00,CLR,OVC,0.00,WeatherDisplay:10.37,2013-01-05 23:12:00,
2013-01-05 15:16:00,36.3,33.6,30.18,SSW,194,7.0,7.0,90,0.00,CLR,OVC,0.00,WeatherDisplay:10.37,2013-01-05 23:16:00,
2013-01-05 15:17:00,36.4,33.7,30.18,South,178,9.2,9.2,90,0.00,CLR,OVC,0.00,WeatherDisplay:10.37,2013-01-05 23:17:00,
2013-01-05 15:21:00,36.4,33.7,30.18,SSW,200,8.1,8.1,90,0.00,CLR,OVC,0.00,WeatherDisplay:10.37,2013-01-05 23:21:00,
2013-01-05 15:22:00,36.4,33.7,30.18,South,189,9.2,9.2,90,0.00,CLR,OVC,0.00,WeatherDisplay:10.37,2013-01-05 23:22:00,
2013-01-05 15:23:00,36.4,33.7,30.18,South,188,9.2,9.2,90,0.00,CLR,OVC,0.00,WeatherDisplay:10.37,2013-01-05 23:23:00,
2013-01-05 15:26:00,36.5,33.8,30.18,SW,214,10.4,10.4,90,0.00,CLR,OVC,0.00,WeatherDisplay:10.37,2013-01-05 23:26:00,
2013-01-05 15:27:00,36.5,33.8,30.18,SW,227,10.4,10.4,90,0.00,CLR,OVC,0.00,WeatherDisplay:10.37,2013-01-05 23:27:00,
2013-01-05 15:28:00,36.5,33.8,30.18,SSW,211,9.2,9.2,90,0.00,CLR,OVC,0.00,WeatherDisplay:10.37,2013-01-05 23:28:00,
2013-01-05 15:32:00,36.6,33.7,30.18,South,176,11.5,11.5,89,0.00,CLR,OVC,0.00,WeatherDisplay:10.37,2013-01-05 23:32:00,
2013-01-05 15:33:00,36.7,33.8,30.18,SSW,201,9.2,9.2,89,0.00,CLR,OVC,0.00,WeatherDisplay:10.37,2013-01-05 23:33:00,
2013-01-05 15:37:00,36.7,33.8,30.18,SSW,213,6.0,6.0,89,0.00,CLR,OVC,0.00,WeatherDisplay:10.37,2013-01-05 23:37:00,
2013-01-05 15:38:00,36.7,33.8,30.18,SSW,213,5.8,5.8,89,0.00,CLR,OVC,0.00,WeatherDisplay:10.37,2013-01-05 23:38:00,
2013-01-05 15:42:00,36.7,33.8,30.18,SW,229,8.1,8.1,89,0.00,CLR,OVC,0.00,WeatherDisplay:10.37,2013-01-05 23:42:00,
2013-01-05 15:43:00,36.7,33.8,30.18,SSW,202,5.0,5.0,89,0.00,CLR,OVC,0.00,WeatherDisplay:10.37,2013-01-05 23:43:00,
2013-01-05 15:47:00,36.7,33.8,30.18,SW,225,4.6,4.6,89,0.00,CLR,OVC,0.00,WeatherDisplay:10.37,2013-01-05 23:47:00,
2013-01-05 15:48:00,36.7,33.8,30.18,SW,228,5.8,5.8,89,0.00,CLR,OVC,0.00,WeatherDisplay:10.37,2013-01-05 23:48:00,
2013-01-05 15:52:00,36.6,33.7,30.18,SSW,200,5.8,5.8,89,0.00,CLR,OVC,0.00,WeatherDisplay:10.37,2013-01-05 23:52:00,
2013-01-05 15:53:00,36.6,33.7,30.18,SW,232,4.6,5.1,89,0.00,CLR,OVC,0.00,WeatherDisplay:10.37,2013-01-05 23:53:00,
2013-01-05 15:57:00,36.5,33.6,30.18,SW,217,6.0,6.0,89,0.00,CLR,OVC,0.00,WeatherDisplay:10.37,2013-01-05 23:57:00,
2013-01-05 15:58:00,36.5,33.8,30.18,SW,221,5.8,5.8,90,0.00,CLR,OVC,0.00,WeatherDisplay:10.37,2013-01-05 23:58:00,
2013-01-05 15:59:00,36.5,33.8,30.18,SW,221,9.2,9.2,90,0.00,CLR,OVC,0.00,WeatherDisplay:10.37,2013-01-05 23:59:00,
2013-01-05 16:02:00,36.4,33.7,30.17,SW,229,5.8,5.8,90,0.00,CLR,OVC,0.00,WeatherDisplay:10.37,2013-01-06 00:02:00,
2013-01-05 16:03:00,36.4,33.7,30.17,SW,222,5.8,5.8,90,0.00,CLR,OVC,0.00,WeatherDisplay:10.37,2013-01-06 00:03:00,
2013-01-05 16:04:00,36.4,33.7,30.17,SSW,209,4.6,5.0,90,0.00,CLR,OVC,0.00,WeatherDisplay:10.37,2013-01-06 00:04:00,
2013-01-05 16:07:00,36.4,33.7,30.17,SW,219,8.1,8.1,90,0.00,CLR,OVC,0.00,WeatherDisplay:10.37,2013-01-06 00:07:00,
2013-01-05 16:08:00,36.4,33.7,30.17,SSW,212,6.0,6.0,90,0.00,CLR,OVC,0.00,WeatherDisplay:10.37,2013-01-06 00:08:00,
2013-01-05 16:09:00,36.4,33.7,30.17,SW,221,5.8,5.8,90,0.00,CLR,OVC,0.00,WeatherDisplay:10.37,2013-01-06 00:09:00,
2013-01-05 16:12:00,36.3,33.6,30.18,SSW,196,6.9,6.9,90,0.00,CLR,OVC,0.00,WeatherDisplay:10.37,2013-01-06 00:12:00,
2013-01-05 16:13:00,36.3,33.6,30.18,SSW,206,8.1,8.1,90,0.00,CLR,OVC,0.00,WeatherDisplay:10.37,2013-01-06 00:13:00,
2013-01-05 16:14:00,36.3,33.6,30.18,SSW,195,8.1,8.1,90,0.00,CLR,OVC,0.00,WeatherDisplay:10.37,2013-01-06 00:14:00,
2013-01-05 16:18:00,36.2,33.5,30.17,South,188,5.0,5.0,90,0.00,CLR,OVC,0.00,WeatherDisplay:10.37,2013-01-06 00:18:00,
2013-01-05 16:19:00,36.2,33.5,30.17,SSW,209,6.9,6.9,90,0.00,CLR,OVC,0.00,WeatherDisplay:10.37,2013-01-06 00:19:00,
2013-01-05 16:20:00,36.2,33.5,30.17,SSW,203,6.9,6.9,90,0.00,CLR,OVC,0.00,WeatherDisplay:10.37,2013-01-06 00:20:00,
2013-01-05 16:23:00,36.2,33.5,30.17,SW,233,8.1,8.1,90,0.00,CLR,OVC,0.00,WeatherDisplay:10.37,2013-01-06 00:23:00,
2013-01-05 16:24:00,36.1,33.5,30.17,South,183,7.0,7.0,90,0.00,CLR,OVC,0.00,WeatherDisplay:10.37,2013-01-06 00:24:00,
2013-01-05 16:25:00,36.1,33.5,30.18,SW,218,6.9,6.9,90,0.00,CLR,OVC,0.00,WeatherDisplay:10.37,2013-01-06 00:25:00,
2013-01-05 16:28:00,36.0,33.4,30.17,South,188,5.8,5.8,90,0.00,CLR,OVC,0.00,WeatherDisplay:10.37,2013-01-06 00:28:00,
2013-01-05 16:29:00,36.0,33.4,30.17,South,185,8.1,8.1,90,0.00,CLR,OVC,0.00,WeatherDisplay:10.37,2013-01-06 00:29:00,
2013-01-05 16:30:00,36.0,33.4,30.17,South,183,4.6,4.6,90,0.00,CLR,OVC,0.00,WeatherDisplay:10.37,2013-01-06 00:30:00,
2013-01-05 16:33:00,35.9,33.3,30.17,SSW,207,6.0,6.0,90,0.00,CLR,OVC,0.00,WeatherDisplay:10.37,2013-01-06 00:33:00,
2013-01-05 16:34:00,35.9,33.3,30.17,SSW,210,6.0,6.0,90,0.00,CLR,OVC,0.00,WeatherDisplay:10.37,2013-01-06 00:34:00,
2013-01-05 16:35:00,35.9,33.5,30.17,SSW,192,6.0,6.3,91,0.00,CLR,OVC,0.00,WeatherDisplay:10.37,2013-01-06 00:35:00,
2013-01-05 16:38:00,35.8,33.4,30.18,South,188,9.2,9.2,91,0.00,CLR,OVC,0.00,WeatherDisplay:10.37,2013-01-06 00:38:00,
2013-01-05 16:39:00,35.7,33.3,30.17,SSE,168,7.0,7.0,91,0.00,CLR,OVC,0.00,WeatherDisplay:10.37,2013-01-06 00:39:00,
2013-01-05 16:40:00,35.7,33.3,30.17,SSW,200,6.9,6.9,91,0.00,CLR,OVC,0.00,WeatherDisplay:10.37,2013-01-06 00:40:00,
2013-01-05 16:43:00,35.7,33.3,30.17,SSW,197,8.1,8.1,91,0.00,CLR,OVC,0.00,WeatherDisplay:10.37,2013-01-06 00:43:00,
2013-01-05 16:44:00,35.7,33.3,30.17,SSW,209,8.1,8.1,91,0.00,CLR,OVC,0.00,WeatherDisplay:10.37,2013-01-06 00:44:00,
2013-01-05 16:45:00,35.7,33.3,30.17,SW,219,6.9,6.9,91,0.00,CLR,OVC,0.00,WeatherDisplay:10.37,2013-01-06 00:45:00,
2013-01-05 16:48:00,35.6,33.2,30.17,SW,230,6.9,6.9,91,0.00,CLR,OVC,0.00,WeatherDisplay:10.37,2013-01-06 00:48:00,
2013-01-05 16:49:00,35.6,33.2,30.18,SSW,201,9.2,9.2,91,0.00,CLR,OVC,0.00,WeatherDisplay:10.37,2013-01-06 00:49:00,
2013-01-05 16:50:00,35.6,33.2,30.18,SW,226,9.2,9.2,91,0.00,CLR,OVC,0.00,WeatherDisplay:10.37,2013-01-06 00:50:00,
2013-01-05 16:53:00,35.6,33.2,30.18,SSW,210,8.1,8.1,91,0.00,CLR,OVC,0.00,WeatherDisplay:10.37,2013-01-06 00:53:00,
2013-01-05 16:54:00,35.6,33.2,30.18,SSW,209,13.0,13.0,91,0.00,CLR,OVC,0.00,WeatherDisplay:10.37,2013-01-06 00:54:00,
2013-01-05 16:55:00,35.5,33.1,30.18,SSW,208,12.7,12.7,91,0.00,CLR,OVC,0.00,WeatherDisplay:10.37,2013-01-06 00:55:00,
2013-01-05 16:58:00,35.5,33.1,30.18,SSW,202,11.5,11.5,91,0.00,CLR,OVC,0.00,WeatherDisplay:10.37,2013-01-06 00:58:00,
2013-01-05 16:59:00,35.5,33.1,30.18,SSW,193,8.1,8.1,91,0.00,CLR,OVC,0.00,WeatherDisplay:10.37,2013-01-06 00:59:00,
2013-01-05 17:00:00,35.5,33.1,30.18,SSW,200,11.5,11.5,91,0.00,CLR,OVC,0.00,WeatherDisplay:10.37,2013-01-06 01:00:00,
2013-01-05 17:03:00,35.5,33.1,30.18,SW,217,9.2,9.2,91,0.00,CLR,OVC,0.00,WeatherDisplay:10.37,2013-01-06 01:03:00,
2013-01-05 17:04:00,35.4,33.0,30.18,SSW,196,10.4,10.4,91,0.00,CLR,OVC,0.00,WeatherDisplay:10.37,2013-01-06 01:04:00,
2013-01-05 17:06:00,35.4,33.0,30.18,South,175,6.9,6.9,91,0.00,CLR,OVC,0.00,WeatherDisplay:10.37,2013-01-06 01:06:00,
2013-01-05 17:08:00,35.3,33.2,30.18,South,175,6.0,6.0,92,0.00,CLR,OVC,0.00,WeatherDisplay:10.37,2013-01-06 01:08:00,
2013-01-05 17:09:00,35.3,33.2,30.18,SSW,206,9.0,9.0,92,0.00,CLR,OVC,0.00,WeatherDisplay:10.37,2013-01-06 01:09:00,
2013-01-05 17:10:00,35.3,33.2,30.18,SW,221,9.2,9.2,92,0.00,CLR,OVC,0.00,WeatherDisplay:10.37,2013-01-06 01:10:00,
2013-01-05 17:11:00,35.3,33.2,30.18,SW,216,8.1,8.1,92,0.00,CLR,OVC,0.00,WeatherDisplay:10.37,2013-01-06 01:11:00,
2013-01-05 17:14:00,35.3,33.2,30.18,SSW,212,6.0,6.0,92,0.00,CLR,OVC,0.00,WeatherDisplay:10.37,2013-01-06 01:14:00,
2013-01-05 17:15:00,35.3,33.2,30.18,SSW,211,6.9,6.9,92,0.00,CLR,OVC,0.00,WeatherDisplay:10.37,2013-01-06 01:15:00,
2013-01-05 17:16:00,35.3,33.2,30.18,SSW,201,5.8,5.8,92,0.00,CLR,OVC,0.00,WeatherDisplay:10.37,2013-01-06 01:16:00,
2013-01-05 17:19:00,35.3,33.2,30.18,SSW,213,11.5,11.5,92,0.00,CLR,OVC,0.00,WeatherDisplay:10.37,2013-01-06 01:19:00,
2013-01-05 17:20:00,35.3,33.2,30.18,SSW,202,11.5,11.5,92,0.00,CLR,OVC,0.00,WeatherDisplay:10.37,2013-01-06 01:20:00,
2013-01-05 17:21:00,35.3,33.2,30.18,SSW,199,9.2,9.2,92,0.00,CLR,OVC,0.00,WeatherDisplay:10.37,2013-01-06 01:21:00,
2013-01-05 17:24:00,35.2,33.1,30.18,South,175,12.0,12.0,92,0.00,CLR,OVC,0.00,WeatherDisplay:10.37,2013-01-06 01:24:00,
2013-01-05 17:25:00,35.2,33.1,30.18,SW,217,14.0,14.0,92,0.00,CLR,OVC,0.00,WeatherDisplay:10.37,2013-01-06 01:25:00,
2013-01-05 17:26:00,35.2,33.1,30.18,SSW,200,13.8,13.8,92,0.00,CLR,OVC,0.00,WeatherDisplay:10.37,2013-01-06 01:26:00,
2013-01-05 17:29:00,35.1,33.0,30.18,SSE,156,11.5,11.5,92,0.00,CLR,OVC,0.00,WeatherDisplay:10.37,2013-01-06 01:29:00,
2013-01-05 17:30:00,35.1,33.0,30.18,South,190,11.5,11.5,92,0.00,CLR,OVC,0.00,WeatherDisplay:10.37,2013-01-06 01:30:00,
2013-01-05 17:31:00,35.1,33.0,30.18,SSW,209,11.5,11.5,92,0.00,CLR,OVC,0.00,WeatherDisplay:10.37,2013-01-06 01:31:00,
2013-01-05 17:35:00,35.0,32.9,30.18,SSW,194,10.4,10.4,92,0.00,CLR,OVC,0.00,WeatherDisplay:10.37,2013-01-06 01:35:00,
2013-01-05 17:36:00,35.0,32.9,30.18,SSW,194,8.1,8.1,92,0.00,CLR,OVC,0.00,WeatherDisplay:10.37,2013-01-06 01:36:00,
2013-01-05 17:40:00,35.0,32.9,30.19,SW,220,10.4,10.4,92,0.00,CLR,OVC,0.00,WeatherDisplay:10.37,2013-01-06 01:40:00,
2013-01-05 17:41:00,35.0,32.9,30.19,SW,216,10.4,10.4,92,0.00,CLR,OVC,0.00,WeatherDisplay:10.37,2013-01-06 01:41:00,
2013-01-05 17:42:00,35.0,32.9,30.19,SSE,165,12.0,12.0,92,0.00,CLR,OVC,0.00,WeatherDisplay:10.37,2013-01-06 01:42:00,
2013-01-05 17:45:00,35.1,33.0,30.19,SSW,209,12.7,12.7,92,0.00,CLR,OVC,0.00,WeatherDisplay:10.37,2013-01-06 01:45:00,
2013-01-05 17:46:00,35.2,32.8,30.19,SW,227,15.0,15.0,91,0.00,CLR,OVC,0.00,WeatherDisplay:10.37,2013-01-06 01:46:00,
2013-01-05 17:47:00,35.3,32.9,30.19,SSW,211,12.7,12.7,91,0.00,CLR,OVC,0.00,WeatherDisplay:10.37,2013-01-06 01:47:00,
2013-01-05 17:50:00,35.3,32.9,30.18,SSW,194,15.0,15.0,91,0.00,CLR,OVC,0.00,WeatherDisplay:10.37,2013-01-06 01:50:00,
2013-01-05 17:52:00,35.3,32.9,30.19,SSE,167,10.4,10.4,91,0.00,CLR,OVC,0.00,WeatherDisplay:10.37,2013-01-06 01:52:00,
2013-01-05 17:55:00,35.2,32.8,30.18,SW,217,8.1,8.1,91,0.00,CLR,OVC,0.00,WeatherDisplay:10.37,2013-01-06 01:55:00,
2013-01-05 17:57:00,35.2,32.8,30.19,SSW,192,11.5,11.5,91,0.00,CLR,OVC,0.00,WeatherDisplay:10.37,2013-01-06 01:57:00,
2013-01-05 18:00:00,35.1,32.7,30.19,SW,223,8.1,8.1,91,0.00,CLR,OVC,0.00,WeatherDisplay:10.37,2013-01-06 02:00:00,
2013-01-05 18:02:00,35.0,32.6,30.19,SSW,205,8.1,8.1,91,0.00,CLR,OVC,0.00,WeatherDisplay:10.37,2013-01-06 02:02:00,
2013-01-05 18:05:00,34.9,32.5,30.19,SW,227,6.9,6.9,91,0.00,CLR,OVC,0.00,WeatherDisplay:10.37,2013-01-06 02:05:00,
2013-01-05 18:07:00,34.9,32.5,30.19,SSW,199,11.5,11.5,91,0.00,CLR,OVC,0.00,WeatherDisplay:10.37,2013-01-06 02:07:00,
2013-01-05 18:10:00,34.8,32.7,30.18,South,186,11.5,11.5,92,0.00,CLR,OVC,0.00,WeatherDisplay:10.37,2013-01-06 02:10:00,
2013-01-05 18:13:00,34.8,32.4,30.19,South,177,11.5,11.5,91,0.00,CLR,OVC,0.00,WeatherDisplay:10.37,2013-01-06 02:13:00,
2013-01-05 18:15:00,34.9,32.8,30.18,South,176,10.4,10.4,92,0.00,CLR,OVC,0.00,WeatherDisplay:10.37,2013-01-06 02:15:00,
2013-01-05 18:18:00,34.9,32.5,30.19,SW,230,8.1,8.1,91,0.00,CLR,OVC,0.00,WeatherDisplay:10.37,2013-01-06 02:18:00,
2013-01-05 18:20:00,34.8,32.4,30.19,SSW,198,9.2,9.2,91,0.00,CLR,OVC,0.00,WeatherDisplay:10.37,2013-01-06 02:20:00,
2013-01-05 18:21:00,34.8,32.4,30.19,SW,214,9.2,9.2,91,0.00,CLR,OVC,0.00,WeatherDisplay:10.37,2013-01-06 02:21:00,
2013-01-05 18:23:00,34.8,32.4,30.19,SSW,203,8.1,8.1,91,0.00,CLR,OVC,0.00,WeatherDisplay:10.37,2013-01-06 02:23:00,
2013-01-05 18:26:00,34.8,32.4,30.19,South,188,9.2,9.2,91,0.00,CLR,OVC,0.00,WeatherDisplay:10.37,2013-01-06 02:26:00,
2013-01-05 18:28:00,34.7,32.3,30.19,SSW,196,9.2,9.2,91,0.00,CLR,OVC,0.00,WeatherDisplay:10.37,2013-01-06 02:28:00,
2013-01-05 18:31:00,34.7,32.3,30.19,SW,215,8.1,8.1,91,0.00,CLR,OVC,0.00,WeatherDisplay:10.37,2013-01-06 02:31:00,
2013-01-05 18:33:00,34.7,32.3,30.19,South,191,9.2,9.2,91,0.00,CLR,OVC,0.00,WeatherDisplay:10.37,2013-01-06 02:33:00,
2013-01-05 18:36:00,34.7,32.6,30.19,SSW,198,7.0,7.0,92,0.00,CLR,OVC,0.00,WeatherDisplay:10.37,2013-01-06 02:36:00,
2013-01-05 18:38:00,34.6,32.5,30.19,SSW,209,6.9,6.9,92,0.00,CLR,OVC,0.00,WeatherDisplay:10.37,2013-01-06 02:38:00,
2013-01-05 18:39:00,34.6,32.5,30.19,SSW,199,5.8,5.8,92,0.00,CLR,OVC,0.00,WeatherDisplay:10.37,2013-01-06 02:39:00,
2013-01-05 18:41:00,34.6,32.5,30.19,SSW,199,5.8,5.8,92,0.00,CLR,OVC,0.00,WeatherDisplay:10.37,2013-01-06 02:41:00,
2013-01-05 18:43:00,34.6,32.5,30.19,SSW,199,5.8,5.8,92,0.00,CLR,OVC,0.00,WeatherDisplay:10.37,2013-01-06 02:43:00,
2013-01-05 18:44:00,34.6,32.5,30.19,SSW,199,5.8,5.8,92,0.00,CLR,OVC,0.00,WeatherDisplay:10.37,2013-01-06 02:44:00,
2013-01-05 18:46:00,34.6,32.5,30.19,SSW,199,5.8,5.8,92,0.00,CLR,OVC,0.00,WeatherDisplay:10.37,2013-01-06 02:46:00,
2013-01-05 18:48:00,34.6,32.5,30.19,SSW,199,5.8,5.8,92,0.00,CLR,OVC,0.00,WeatherDisplay:10.37,2013-01-06 02:48:00,
2013-01-05 18:49:00,34.6,32.5,30.19,SSW,199,5.8,5.8,92,0.00,CLR,OVC,0.00,WeatherDisplay:10.37,2013-01-06 02:49:00,
2013-01-05 18:55:00,34.6,32.5,30.19,SSW,199,5.8,5.8,92,0.00,CLR,OVC,0.00,WeatherDisplay:10.37,2013-01-06 02:55:00,
2013-01-05 19:03:00,34.6,32.5,30.19,SSW,199,5.8,5.8,92,0.00,CLR,OVC,0.00,WeatherDisplay:10.37,2013-01-06 03:03:00,
2013-01-05 19:06:00,34.6,32.5,30.19,SSW,199,5.8,5.8,92,0.00,CLR,OVC,0.00,WeatherDisplay:10.37,2013-01-06 03:06:00,
2013-01-05 19:19:00,34.6,32.5,30.19,SSW,199,5.8,5.8,92,0.00,CLR,OVC,0.00,WeatherDisplay:10.37,2013-01-06 03:19:00,
2013-01-05 19:24:00,34.6,32.5,30.19,SSW,199,5.8,5.8,92,0.00,CLR,OVC,0.00,WeatherDisplay:10.37,2013-01-06 03:24:00,
2013-01-05 19:29:00,34.6,32.5,30.19,SSW,199,5.8,5.8,92,0.00,CLR,OVC,0.00,WeatherDisplay:10.37,2013-01-06 03:29:00,
2013-01-05 19:32:00,33.9,31.8,30.19,SW,231,13.0,0.0,92,0.00,CLR,OVC,0.00,WeatherDisplay:10.37,2013-01-06 03:32:00,
2013-01-05 19:34:00,33.9,31.8,30.19,SSW,211,7.0,7.0,92,0.00,CLR,OVC,0.00,WeatherDisplay:10.37,2013-01-06 03:34:00,
2013-01-05 19:37:00,33.9,31.8,30.19,South,188,11.5,11.5,92,0.00,CLR,OVC,0.00,WeatherDisplay:10.37,2013-01-06 03:37:00,
2013-01-05 19:40:00,33.9,31.8,30.19,SSE,168,10.4,10.4,92,0.00,CLR,OVC,0.00,WeatherDisplay:10.37,2013-01-06 03:40:00,
2013-01-05 19:42:00,33.9,31.8,30.19,South,176,10.4,10.4,92,0.00,CLR,OVC,0.00,WeatherDisplay:10.37,2013-01-06 03:42:00,
2013-01-05 19:45:00,33.9,31.8,30.19,South,185,10.4,10.4,92,0.00,CLR,OVC,0.00,WeatherDisplay:10.37,2013-01-06 03:45:00,
2013-01-05 19:47:00,33.8,31.7,30.19,SSW,205,9.0,9.2,92,0.00,CLR,OVC,0.00,WeatherDisplay:10.37,2013-01-06 03:47:00,
2013-01-05 19:50:00,33.8,31.7,30.19,South,189,11.0,11.0,92,0.00,CLR,OVC,0.00,WeatherDisplay:10.37,2013-01-06 03:50:00,
2013-01-05 19:52:00,33.7,31.6,30.19,SSW,209,11.0,11.0,92,0.00,CLR,OVC,0.00,WeatherDisplay:10.37,2013-01-06 03:52:00,
2013-01-05 19:53:00,33.7,31.6,30.19,South,176,13.0,13.0,92,0.00,CLR,OVC,0.00,WeatherDisplay:10.37,2013-01-06 03:53:00,
2013-01-05 19:55:00,33.8,31.7,30.19,SSW,213,9.2,9.2,92,0.00,CLR,OVC,0.00,WeatherDisplay:10.37,2013-01-06 03:55:00,
2013-01-05 19:57:00,33.8,31.7,30.19,South,180,8.0,8.0,92,0.00,CLR,OVC,0.00,WeatherDisplay:10.37,2013-01-06 03:57:00,
2013-01-05 19:58:00,33.8,31.7,30.19,South,182,10.4,10.4,92,0.00,CLR,OVC,0.00,WeatherDisplay:10.37,2013-01-06 03:58:00,
2013-01-05 20:00:00,33.7,31.6,30.19,SSW,208,10.0,10.0,92,0.00,CLR,OVC,0.00,WeatherDisplay:10.37,2013-01-06 04:00:00,
2013-01-05 20:02:00,33.7,31.6,30.19,SW,218,10.4,10.4,92,0.00,CLR,OVC,0.00,WeatherDisplay:10.37,2013-01-06 04:02:00,
2013-01-05 20:03:00,33.7,31.6,30.19,SW,214,11.5,11.5,92,0.00,CLR,OVC,0.00,WeatherDisplay:10.37,2013-01-06 04:03:00,
2013-01-05 20:05:00,33.7,31.6,30.19,SSW,198,9.0,9.0,92,0.00,CLR,OVC,0.00,WeatherDisplay:10.37,2013-01-06 04:05:00,
2013-01-05 20:07:00,33.7,31.6,30.19,South,173,6.9,6.9,92,0.00,CLR,OVC,0.00,WeatherDisplay:10.37,2013-01-06 04:07:00,
2013-01-05 20:08:00,33.8,31.7,30.19,South,179,8.1,8.1,92,0.00,CLR,OVC,0.00,WeatherDisplay:10.37,2013-01-06 04:08:00,
2013-01-05 20:10:00,33.8,31.7,30.19,SSE,161,11.5,11.5,92,0.00,CLR,OVC,0.00,WeatherDisplay:10.37,2013-01-06 04:10:00,
2013-01-05 20:12:00,33.8,31.5,30.20,SSW,200,12.7,12.7,91,0.00,CLR,OVC,0.00,WeatherDisplay:10.37,2013-01-06 04:12:00,
2013-01-05 20:13:00,33.8,31.5,30.20,SSW,197,9.2,9.2,91,0.00,CLR,OVC,0.00,WeatherDisplay:10.37,2013-01-06 04:13:00,
2013-01-05 20:15:00,33.9,31.6,30.20,SSW,201,12.7,12.7,91,0.00,CLR,OVC,0.00,WeatherDisplay:10.37,2013-01-06 04:15:00,
2013-01-05 20:17:00,34.0,31.6,30.19,South,190,9.2,9.2,91,0.00,CLR,OVC,0.00,WeatherDisplay:10.37,2013-01-06 04:17:00,
2013-01-05 20:18:00,34.0,31.6,30.19,SSE,167,10.4,10.4,91,0.00,CLR,OVC,0.00,WeatherDisplay:10.37,2013-01-06 04:18:00,
2013-01-05 20:20:00,34.0,31.6,30.19,SSW,199,7.0,7.0,91,0.00,CLR,OVC,0.00,WeatherDisplay:10.37,2013-01-06 04:20:00,
2013-01-05 20:22:00,34.0,31.6,30.19,SSW,205,8.1,8.1,91,0.00,CLR,OVC,0.00,WeatherDisplay:10.37,2013-01-06 04:22:00,
2013-01-05 20:23:00,34.1,31.7,30.19,SSW,202,10.0,10.0,91,0.00,CLR,OVC,0.00,WeatherDisplay:10.37,2013-01-06 04:23:00,
2013-01-05 20:25:00,34.1,31.7,30.20,SSE,168,11.5,11.5,91,0.00,CLR,OVC,0.00,WeatherDisplay:10.37,2013-01-06 04:25:00,
2013-01-05 20:28:00,34.2,31.8,30.20,SSW,197,9.2,9.2,91,0.00,CLR,OVC,0.00,WeatherDisplay:10.37,2013-01-06 04:28:00,
2013-01-05 20:30:00,34.2,31.8,30.19,SSE,163,9.2,9.2,91,0.00,CLR,OVC,0.00,WeatherDisplay:10.37,2013-01-06 04:30:00,
2013-01-05 20:33:00,34.2,31.8,30.19,SSW,198,9.2,9.2,91,0.00,CLR,OVC,0.00,WeatherDisplay:10.37,2013-01-06 04:33:00,
2013-01-05 20:34:00,34.2,31.8,30.19,SSW,193,13.8,13.8,91,0.00,CLR,OVC,0.00,WeatherDisplay:10.37,2013-01-06 04:34:00,
2013-01-05 20:35:00,34.1,31.7,30.19,SSW,205,11.5,11.5,91,0.00,CLR,OVC,0.00,WeatherDisplay:10.37,2013-01-06 04:35:00,
2013-01-05 20:38:00,34.1,31.7,30.19,SSW,199,6.9,6.9,91,0.00,CLR,OVC,0.00,WeatherDisplay:10.37,2013-01-06 04:38:00,
2013-01-05 20:39:00,34.1,31.7,30.19,South,191,8.1,8.1,91,0.00,CLR,OVC,0.00,WeatherDisplay:10.37,2013-01-06 04:39:00,
2013-01-05 20:40:00,34.0,31.6,30.19,South,178,9.2,9.2,91,0.00,CLR,OVC,0.00,WeatherDisplay:10.37,2013-01-06 04:40:00,
2013-01-05 20:43:00,34.0,31.9,30.19,South,189,6.9,6.9,92,0.00,CLR,OVC,0.00,WeatherDisplay:10.37,2013-01-06 04:43:00,
2013-01-05 20:44:00,33.9,31.8,30.19,SW,223,6.9,6.9,92,0.00,CLR,OVC,0.00,WeatherDisplay:10.37,2013-01-06 04:44:00,
2013-01-05 20:45:00,33.9,31.8,30.19,South,187,7.0,7.0,92,0.00,CLR,OVC,0.00,WeatherDisplay:10.37,2013-01-06 04:45:00,
2013-01-05 20:48:00,33.9,31.8,30.19,SSW,200,4.6,4.6,92,0.00,CLR,OVC,0.00,WeatherDisplay:10.37,2013-01-06 04:48:00,
2013-01-05 20:49:00,33.9,31.8,30.19,SW,224,5.0,5.0,92,0.00,CLR,OVC,0.00,WeatherDisplay:10.37,2013-01-06 04:49:00,
2013-01-05 20:50:00,33.9,31.8,30.19,SW,218,5.8,5.8,92,0.00,CLR,OVC,0.00,WeatherDisplay:10.37,2013-01-06 04:50:00,
2013-01-05 20:53:00,33.9,31.8,30.19,SSW,207,8.1,8.1,92,0.00,CLR,OVC,0.00,WeatherDisplay:10.37,2013-01-06 04:53:00,
2013-01-05 20:54:00,33.9,31.8,30.19,SW,225,6.9,6.9,92,0.00,CLR,OVC,0.00,WeatherDisplay:10.37,2013-01-06 04:54:00,
2013-01-05 20:56:00,33.9,32.1,30.20,South,191,5.8,5.8,93,0.00,CLR,OVC,0.00,WeatherDisplay:10.37,2013-01-06 04:56:00,
2013-01-05 20:58:00,33.9,31.8,30.20,SSE,160,8.0,8.0,92,0.00,CLR,OVC,0.00,WeatherDisplay:10.37,2013-01-06 04:58:00,
2013-01-05 20:59:00,33.9,31.8,30.20,SW,217,10.4,10.4,92,0.00,CLR,OVC,0.00,WeatherDisplay:10.37,2013-01-06 04:59:00,
2013-01-05 21:00:00,33.9,31.8,30.20,SW,217,10.4,10.4,92,0.00,CLR,OVC,0.00,WeatherDisplay:10.37,2013-01-06 05:00:00,
2013-01-05 21:01:00,33.9,32.1,30.20,South,191,5.8,5.8,93,0.00,CLR,OVC,0.00,WeatherDisplay:10.37,2013-01-06 05:01:00,
2013-01-05 21:02:00,33.9,32.1,30.20,South,185,5.8,5.8,93,0.00,CLR,OVC,0.00,WeatherDisplay:10.37,2013-01-06 05:02:00,
2013-01-05 21:05:00,33.9,32.1,30.20,SSW,200,8.0,8.0,93,0.00,CLR,OVC,0.00,WeatherDisplay:10.37,2013-01-06 05:05:00,
2013-01-05 21:08:00,33.9,32.1,30.20,SSW,207,9.2,9.2,93,0.00,CLR,OVC,0.00,WeatherDisplay:10.37,2013-01-06 05:08:00,
2013-01-05 21:10:00,33.9,32.1,30.19,South,177,9.0,9.0,93,0.00,CLR,OVC,0.00,WeatherDisplay:10.37,2013-01-06 05:10:00,
2013-01-05 21:13:00,33.9,32.1,30.19,SSW,207,11.5,11.5,93,0.00,CLR,OVC,0.00,WeatherDisplay:10.37,2013-01-06 05:13:00,
2013-01-05 21:14:00,33.9,32.1,30.19,SSW,200,11.5,11.5,93,0.00,CLR,OVC,0.00,WeatherDisplay:10.37,2013-01-06 05:14:00,
2013-01-05 21:15:00,33.9,32.1,30.19,SSW,200,10.4,10.4,93,0.00,CLR,OVC,0.00,WeatherDisplay:10.37,2013-01-06 05:15:00,
2013-01-05 21:18:00,33.9,32.1,30.19,SSW,209,6.9,6.9,93,0.00,CLR,OVC,0.00,WeatherDisplay:10.37,2013-01-06 05:18:00,
2013-01-05 21:19:00,33.9,32.1,30.19,SSW,209,6.0,6.0,93,0.00,CLR,OVC,0.00,WeatherDisplay:10.37,2013-01-06 05:19:00,
2013-01-05 21:20:00,33.8,32.0,30.19,SSW,198,9.0,9.0,93,0.00,CLR,OVC,0.00,WeatherDisplay:10.37,2013-01-06 05:20:00,
2013-01-05 21:23:00,33.9,32.1,30.19,SSW,201,8.1,8.1,93,0.00,CLR,OVC,0.00,WeatherDisplay:10.37,2013-01-06 05:23:00,
2013-01-05 21:24:00,33.9,32.1,30.20,SSW,207,6.0,6.0,93,0.00,CLR,OVC,0.00,WeatherDisplay:10.37,2013-01-06 05:24:00,
2013-01-05 21:25:00,33.9,32.1,30.20,SW,218,6.0,6.0,93,0.00,CLR,OVC,0.00,WeatherDisplay:10.37,2013-01-06 05:25:00,
2013-01-05 21:28:00,33.9,32.1,30.20,SW,214,9.0,9.0,93,0.00,CLR,OVC,0.00,WeatherDisplay:10.37,2013-01-06 05:28:00,
2013-01-05 21:29:00,33.9,32.1,30.20,SW,223,9.2,9.2,93,0.00,CLR,OVC,0.00,WeatherDisplay:10.37,2013-01-06 05:29:00,
2013-01-05 21:30:00,33.9,32.1,30.20,SW,223,9.2,9.2,93,0.00,CLR,OVC,0.00,WeatherDisplay:10.37,2013-01-06 05:30:00,
2013-01-05 21:31:00,33.9,32.1,30.20,SSW,205,6.0,6.0,93,0.00,CLR,OVC,0.00,WeatherDisplay:10.37,2013-01-06 05:31:00,
2013-01-05 21:33:00,33.9,32.1,30.19,SW,215,5.8,6.2,93,0.00,CLR,OVC,0.00,WeatherDisplay:10.37,2013-01-06 05:33:00,
2013-01-05 21:34:00,33.9,32.1,30.20,South,180,6.9,6.9,93,0.00,CLR,OVC,0.00,WeatherDisplay:10.37,2013-01-06 05:34:00,
2013-01-05 21:36:00,33.9,32.1,30.20,SW,228,9.2,9.2,93,0.00,CLR,OVC,0.00,WeatherDisplay:10.37,2013-01-06 05:36:00,
2013-01-05 21:38:00,33.9,32.1,30.20,SW,219,6.9,7.2,93,0.00,CLR,OVC,0.00,WeatherDisplay:10.37,2013-01-06 05:38:00,
2013-01-05 21:39:00,33.9,32.1,30.19,SSW,208,9.2,9.2,93,0.00,CLR,OVC,0.00,WeatherDisplay:10.37,2013-01-06 05:39:00,
2013-01-05 21:41:00,33.9,32.1,30.19,SSW,201,8.1,8.1,93,0.00,CLR,OVC,0.00,WeatherDisplay:10.37,2013-01-06 05:41:00,
2013-01-05 21:44:00,33.9,32.1,30.19,SSW,201,9.2,9.2,93,0.00,CLR,OVC,0.00,WeatherDisplay:10.37,2013-01-06 05:44:00,
2013-01-05 21:45:00,33.9,32.1,30.19,SSW,202,6.9,6.9,93,0.00,CLR,OVC,0.00,WeatherDisplay:10.37,2013-01-06 05:45:00,
2013-01-05 21:46:00,33.9,32.1,30.19,SSW,205,7.0,7.0,93,0.00,CLR,OVC,0.00,WeatherDisplay:10.37,2013-01-06 05:46:00,
2013-01-05 21:47:00,33.9,32.1,30.19,South,188,8.1,8.1,93,0.00,CLR,OVC,0.00,WeatherDisplay:10.37,2013-01-06 05:47:00,
2013-01-05 21:49:00,33.9,32.1,30.19,SSW,205,8.1,8.1,93,0.00,CLR,OVC,0.00,WeatherDisplay:10.37,2013-01-06 05:49:00,
2013-01-05 21:50:00,33.9,32.1,30.19,South,189,8.1,8.1,93,0.00,CLR,OVC,0.00,WeatherDisplay:10.37,2013-01-06 05:50:00,
2013-01-05 21:51:00,33.9,32.1,30.19,SSW,200,8.1,8.1,93,0.00,CLR,OVC,0.00,WeatherDisplay:10.37,2013-01-06 05:51:00,
2013-01-05 21:52:00,34.0,32.2,30.20,SSW,201,8.1,8.1,93,0.00,CLR,OVC,0.00,WeatherDisplay:10.37,2013-01-06 05:52:00,
2013-01-05 21:54:00,34.0,32.2,30.20,SSW,204,10.4,10.4,93,0.00,CLR,OVC,0.00,WeatherDisplay:10.37,2013-01-06 05:54:00,
2013-01-05 21:55:00,34.0,32.2,30.20,SSW,196,8.1,8.1,93,0.00,CLR,OVC,0.00,WeatherDisplay:10.37,2013-01-06 05:55:00,
2013-01-05 21:56:00,34.0,32.2,30.20,SSE,160,9.2,9.2,93,0.00,CLR,OVC,0.00,WeatherDisplay:10.37,2013-01-06 05:56:00,
2013-01-05 21:57:00,34.0,32.2,30.20,SSW,193,7.0,7.0,93,0.00,CLR,OVC,0.00,WeatherDisplay:10.37,2013-01-06 05:57:00,
2013-01-05 21:59:00,34.0,32.2,30.20,SSW,209,8.1,8.1,93,0.00,CLR,OVC,0.00,WeatherDisplay:10.37,2013-01-06 05:59:00,
2013-01-05 22:00:00,34.0,32.2,30.20,SSW,213,9.0,9.0,93,0.00,CLR,OVC,0.00,WeatherDisplay:10.37,2013-01-06 06:00:00,
2013-01-05 22:01:00,34.0,32.2,30.20,SSW,213,11.5,11.5,93,0.00,CLR,OVC,0.00,WeatherDisplay:10.37,2013-01-06 06:01:00,
2013-01-05 22:02:00,34.0,32.2,30.20,SSW,209,8.1,8.1,93,0.00,CLR,OVC,0.00,WeatherDisplay:10.37,2013-01-06 06:02:00,
2013-01-05 22:04:00,34.0,32.2,30.20,SSW,198,5.8,5.8,93,0.00,CLR,OVC,0.00,WeatherDisplay:10.37,2013-01-06 06:04:00,
2013-01-05 22:05:00,34.0,32.2,30.20,SW,220,11.5,11.5,93,0.00,CLR,OVC,0.00,WeatherDisplay:10.37,2013-01-06 06:05:00,
2013-01-05 22:06:00,34.0,32.2,30.20,SSW,205,8.1,8.1,93,0.00,CLR,OVC,0.00,WeatherDisplay:10.37,2013-01-06 06:06:00,
2013-01-05 22:08:00,34.1,32.3,30.20,SW,217,8.1,8.1,93,0.00,CLR,OVC,0.00,WeatherDisplay:10.37,2013-01-06 06:08:00,
2013-01-05 22:09:00,34.1,32.3,30.20,SSW,210,5.8,5.8,93,0.00,CLR,OVC,0.00,WeatherDisplay:10.37,2013-01-06 06:09:00,
2013-01-05 22:10:00,34.1,32.3,30.20,SSW,209,5.8,5.8,93,0.00,CLR,OVC,0.00,WeatherDisplay:10.37,2013-01-06 06:10:00,
2013-01-05 22:11:00,34.1,32.3,30.20,SSW,198,6.0,6.0,93,0.00,CLR,OVC,0.00,WeatherDisplay:10.37,2013-01-06 06:11:00,
2013-01-05 22:13:00,34.0,32.2,30.20,SW,217,8.1,8.1,93,0.00,CLR,OVC,0.00,WeatherDisplay:10.37,2013-01-06 06:13:00,
2013-01-05 22:14:00,34.0,32.2,30.20,SSW,196,6.9,6.9,93,0.00,CLR,OVC,0.00,WeatherDisplay:10.37,2013-01-06 06:14:00,
2013-01-05 22:15:00,34.0,32.2,30.20,South,182,6.9,6.9,93,0.00,CLR,OVC,0.00,WeatherDisplay:10.37,2013-01-06 06:15:00,
2013-01-05 22:16:00,34.0,32.2,30.20,SSW,204,8.1,8.1,93,0.00,CLR,OVC,0.00,WeatherDisplay:10.37,2013-01-06 06:16:00,
2013-01-05 22:18:00,34.0,32.2,30.20,SSW,206,5.8,5.8,93,0.00,CLR,OVC,0.00,WeatherDisplay:10.37,2013-01-06 06:18:00,
2013-01-05 22:19:00,34.0,32.2,30.20,SSW,205,5.0,5.0,93,0.00,CLR,OVC,0.00,WeatherDisplay:10.37,2013-01-06 06:19:00,
2013-01-05 22:20:00,34.0,32.2,30.20,South,183,5.8,5.8,93,0.00,CLR,OVC,0.00,WeatherDisplay:10.37,2013-01-06 06:20:00,
2013-01-05 22:21:00,34.1,32.3,30.20,South,186,5.8,5.8,93,0.00,CLR,OVC,0.00,WeatherDisplay:10.37,2013-01-06 06:21:00,
2013-01-05 22:23:00,34.0,32.2,30.20,South,173,6.9,6.9,93,0.00,CLR,OVC,0.00,WeatherDisplay:10.37,2013-01-06 06:23:00,
2013-01-05 22:24:00,34.0,32.2,30.20,SSW,193,6.9,6.9,93,0.00,CLR,OVC,0.00,WeatherDisplay:10.37,2013-01-06 06:24:00,
2013-01-05 22:26:00,34.0,32.2,30.20,SSW,205,5.0,5.0,93,0.00,CLR,OVC,0.00,WeatherDisplay:10.37,2013-01-06 06:26:00,
2013-01-05 22:28:00,34.0,32.2,30.20,South,178,8.0,8.0,93,0.00,CLR,OVC,0.00,WeatherDisplay:10.37,2013-01-06 06:28:00,
2013-01-05 22:29:00,34.0,32.2,30.20,South,183,9.2,9.2,93,0.00,CLR,OVC,0.00,WeatherDisplay:10.37,2013-01-06 06:29:00,
2013-01-05 22:31:00,33.9,32.1,30.20,SSW,195,9.2,9.2,93,0.00,CLR,OVC,0.00,WeatherDisplay:10.37,2013-01-06 06:31:00,
2013-01-05 22:33:00,33.9,32.1,30.20,South,184,9.2,9.2,93,0.00,CLR,OVC,0.00,WeatherDisplay:10.37,2013-01-06 06:33:00,
2013-01-05 22:34:00,34.0,32.2,30.20,South,189,9.2,9.2,93,0.00,CLR,OVC,0.00,WeatherDisplay:10.37,2013-01-06 06:34:00,
2013-01-05 22:36:00,34.0,32.2,30.20,SSW,211,10.4,10.4,93,0.00,CLR,OVC,0.00,WeatherDisplay:10.37,2013-01-06 06:36:00,
2013-01-05 22:39:00,34.0,32.2,30.20,SSW,192,9.2,9.2,93,0.00,CLR,OVC,0.00,WeatherDisplay:10.37,2013-01-06 06:39:00,
2013-01-05 22:41:00,34.0,32.2,30.20,SSW,197,5.8,5.8,93,0.00,CLR,OVC,0.00,WeatherDisplay:10.37,2013-01-06 06:41:00,
2013-01-05 22:44:00,33.9,32.1,30.20,SSW,192,8.1,8.1,93,0.00,CLR,OVC,0.00,WeatherDisplay:10.37,2013-01-06 06:44:00,
2013-01-05 22:46:00,33.9,32.1,30.20,South,182,10.4,10.4,93,0.00,CLR,OVC,0.00,WeatherDisplay:10.37,2013-01-06 06:46:00,
2013-01-05 22:47:00,33.9,32.1,30.20,SSW,193,12.0,12.0,93,0.00,CLR,OVC,0.00,WeatherDisplay:10.37,2013-01-06 06:47:00,
2013-01-05 22:49:00,33.9,32.1,30.21,South,172,8.1,8.1,93,0.00,CLR,OVC,0.00,WeatherDisplay:10.37,2013-01-06 06:49:00,
2013-01-05 22:51:00,33.8,32.0,30.21,South,172,6.9,6.9,93,0.00,CLR,OVC,0.00,WeatherDisplay:10.37,2013-01-06 06:51:00,
2013-01-05 22:52:00,33.9,32.1,30.21,South,188,5.8,5.8,93,0.00,CLR,OVC,0.00,WeatherDisplay:10.37,2013-01-06 06:52:00,
2013-01-05 22:54:00,33.8,32.0,30.21,SSW,194,8.1,8.1,93,0.00,CLR,OVC,0.00,WeatherDisplay:10.37,2013-01-06 06:54:00,
2013-01-05 22:56:00,33.8,32.0,30.21,South,186,10.4,10.4,93,0.00,CLR,OVC,0.00,WeatherDisplay:10.37,2013-01-06 06:56:00,
2013-01-05 22:57:00,33.8,32.0,30.21,SSW,194,10.4,10.4,93,0.00,CLR,OVC,0.00,WeatherDisplay:10.37,2013-01-06 06:57:00,
2013-01-05 22:59:00,33.8,32.0,30.21,South,184,5.0,5.0,93,0.00,CLR,OVC,0.00,WeatherDisplay:10.37,2013-01-06 06:59:00,
2013-01-05 23:01:00,33.8,32.0,30.21,SW,228,6.9,6.9,93,0.00,CLR,OVC,0.00,WeatherDisplay:10.37,2013-01-06 07:01:00,
2013-01-05 23:02:00,33.8,32.0,30.21,SW,219,6.9,6.9,93,0.00,CLR,OVC,0.00,WeatherDisplay:10.37,2013-01-06 07:02:00,
2013-01-05 23:04:00,33.8,32.0,30.21,SW,221,10.4,10.4,93,0.00,CLR,OVC,0.00,WeatherDisplay:10.37,2013-01-06 07:04:00,
2013-01-05 23:06:00,33.8,32.0,30.21,SW,218,8.1,8.1,93,0.00,CLR,OVC,0.00,WeatherDisplay:10.37,2013-01-06 07:06:00,
2013-01-05 23:07:00,33.8,32.0,30.21,SSW,197,6.9,6.9,93,0.00,CLR,OVC,0.00,WeatherDisplay:10.37,2013-01-06 07:07:00,
2013-01-05 23:09:00,33.7,31.9,30.22,SSW,213,8.1,8.1,93,0.00,CLR,OVC,0.00,WeatherDisplay:10.37,2013-01-06 07:09:00,
2013-01-05 23:11:00,33.8,32.0,30.22,South,184,9.2,9.2,93,0.00,CLR,OVC,0.00,WeatherDisplay:10.37,2013-01-06 07:11:00,
2013-01-05 23:12:00,33.8,32.0,30.22,SSW,209,6.9,6.9,93,0.00,CLR,OVC,0.00,WeatherDisplay:10.37,2013-01-06 07:12:00,
2013-01-05 23:15:00,33.8,32.3,30.21,SW,215,6.0,6.0,94,0.00,CLR,OVC,0.00,WeatherDisplay:10.37,2013-01-06 07:15:00,
2013-01-05 23:16:00,33.8,32.3,30.21,SSW,203,7.0,7.0,94,0.00,CLR,OVC,0.00,WeatherDisplay:10.37,2013-01-06 07:16:00,
2013-01-05 23:17:00,33.8,32.3,30.21,SSW,203,6.0,6.0,94,0.00,CLR,OVC,0.00,WeatherDisplay:10.37,2013-01-06 07:17:00,
2013-01-05 23:20:00,33.7,32.2,30.21,SSW,193,8.1,8.1,94,0.00,CLR,OVC,0.00,WeatherDisplay:10.37,2013-01-06 07:20:00,
2013-01-05 23:22:00,33.7,32.2,30.21,SSW,202,10.4,10.4,94,0.00,CLR,OVC,0.00,WeatherDisplay:10.37,2013-01-06 07:22:00,
2013-01-05 23:25:00,33.7,32.2,30.21,SSW,206,6.9,6.9,94,0.00,CLR,OVC,0.00,WeatherDisplay:10.37,2013-01-06 07:25:00,
2013-01-05 23:27:00,33.7,32.2,30.21,SSW,200,8.1,8.1,94,0.00,CLR,OVC,0.00,WeatherDisplay:10.37,2013-01-06 07:27:00,
2013-01-05 23:30:00,33.7,32.2,30.21,SSW,199,7.0,8.0,94,0.00,CLR,OVC,0.00,WeatherDisplay:10.37,2013-01-06 07:30:00,
2013-01-05 23:32:00,33.6,32.1,30.21,SSW,200,6.0,6.0,94,0.00,CLR,OVC,0.00,WeatherDisplay:10.37,2013-01-06 07:32:00,
2013-01-05 23:36:00,33.7,32.2,30.21,SW,215,9.2,9.2,94,0.00,CLR,OVC,0.00,WeatherDisplay:10.37,2013-01-06 07:36:00,
2013-01-05 23:37:00,33.7,32.2,30.21,SW,217,9.2,9.2,94,0.00,CLR,OVC,0.00,WeatherDisplay:10.37,2013-01-06 07:37:00,
2013-01-05 23:41:00,33.7,32.2,30.21,SSW,210,10.4,10.4,94,0.00,CLR,OVC,0.00,WeatherDisplay:10.37,2013-01-06 07:41:00,
2013-01-05 23:42:00,33.7,32.2,30.21,SSW,198,9.2,9.2,94,0.00,CLR,OVC,0.00,WeatherDisplay:10.37,2013-01-06 07:42:00,
2013-01-05 23:46:00,33.6,32.1,30.21,SSW,205,5.8,5.8,94,0.00,CLR,OVC,0.00,WeatherDisplay:10.37,2013-01-06 07:46:00,
2013-01-05 23:47:00,33.6,32.1,30.21,SSW,208,5.8,5.8,94,0.00,CLR,OVC,0.00,WeatherDisplay:10.37,2013-01-06 07:47:00,
2013-01-05 23:51:00,33.6,32.1,30.22,SSW,213,6.9,6.9,94,0.00,CLR,OVC,0.00,WeatherDisplay:10.37,2013-01-06 07:51:00,
2013-01-05 23:52:00,33.6,32.1,30.22,SSW,209,9.2,9.2,94,0.00,CLR,OVC,0.00,WeatherDisplay:10.37,2013-01-06 07:52:00,
2013-01-05 23:56:00,33.6,32.1,30.22,SSW,196,9.2,9.2,94,0.00,CLR,OVC,0.00,WeatherDisplay:10.37,2013-01-06 07:56:00,
2013-01-05 23:57:00,33.6,32.1,30.22,South,187,7.0,7.0,94,0.00,CLR,OVC,0.00,WeatherDisplay:10.37,2013-01-06 07:57:00,